BAW8DF KLAX-EGLL

Flight info

Callsign BAW8DF
Flight time 9h 39m
Altitude 33000
Route ORCKA5 LAS DCT BCE DCT MBW DCT RAP DCT DPR DCT GABOV DCT GOSEP/N0482F350 DCT FEDDY/M084F350 DCT LIBOR DCT 62N050W 62N040W 61N030W 59N020W DCT AGORI/N0485F350 DCT OSBOX DCT MIMKU DCT KELLY L10 WAL UY53 NUGRA
Aircraft B77W/H-SDE1E2E3FGHIJ2J3J4J5M1RWXY/LB1D1

Departure

Time 2026-04-25 23:18
Airport Los Angeles International Airport (KLAX)

Arrival

Time 2026-04-26 08:58
Airport London Heathrow Airport (EGLL)
Time Latitude Longitude Altitude Speed Heading
2026-04-25 22:30 33.94087 -118.40941 98 ft 0 kts 263°
2026-04-25 23:03 33.94088 -118.40937 97 ft 3 kts 263°
2026-04-25 23:03 33.94091 -118.40910 96 ft 2 kts 263°
2026-04-25 23:04 33.94096 -118.40881 97 ft 4 kts 246°
2026-04-25 23:04 33.94110 -118.40854 95 ft 4 kts 220°
2026-04-25 23:04 33.94132 -118.40842 97 ft 3 kts 174°
2026-04-25 23:04 33.94124 -118.40840 97 ft 4 kts 173°
2026-04-25 23:05 33.94097 -118.40836 98 ft 4 kts 173°
2026-04-25 23:05 33.94070 -118.40832 100 ft 4 kts 173°
2026-04-25 23:05 33.94043 -118.40829 99 ft 4 kts 173°
2026-04-25 23:05 33.94016 -118.40825 99 ft 4 kts 173°
2026-04-25 23:06 33.94008 -118.40823 98 ft 0 kts 173°
2026-04-25 23:08 33.93994 -118.40821 99 ft 5 kts 173°
2026-04-25 23:09 33.93949 -118.40815 98 ft 7 kts 173°
2026-04-25 23:09 33.93907 -118.40797 99 ft 7 kts 146°
2026-04-25 23:09 33.93873 -118.40760 99 ft 7 kts 141°
2026-04-25 23:09 33.93834 -118.40730 99 ft 7 kts 137°
2026-04-25 23:10 33.93816 -118.40680 101 ft 7 kts 100°
2026-04-25 23:10 33.93816 -118.40619 100 ft 8 kts 85°
2026-04-25 23:10 33.93822 -118.40547 102 ft 9 kts 83°
2026-04-25 23:10 33.93831 -118.40467 100 ft 10 kts 83°
2026-04-25 23:11 33.93839 -118.40381 102 ft 11 kts 83°
2026-04-25 23:11 33.93849 -118.40286 100 ft 12 kts 83°
2026-04-25 23:11 33.93860 -118.40183 102 ft 13 kts 83°
2026-04-25 23:11 33.93871 -118.40073 102 ft 13 kts 83°
2026-04-25 23:12 33.93883 -118.39963 103 ft 13 kts 83°
2026-04-25 23:12 33.93894 -118.39853 101 ft 13 kts 83°
2026-04-25 23:12 33.93904 -118.39743 100 ft 13 kts 83°
2026-04-25 23:12 33.93915 -118.39633 101 ft 13 kts 83°
2026-04-25 23:13 33.93927 -118.39524 100 ft 13 kts 83°
2026-04-25 23:13 33.93939 -118.39413 102 ft 13 kts 83°
2026-04-25 23:13 33.93950 -118.39303 99 ft 13 kts 83°
2026-04-25 23:13 33.93961 -118.39194 100 ft 13 kts 83°
2026-04-25 23:14 33.93972 -118.39085 99 ft 13 kts 83°
2026-04-25 23:14 33.93983 -118.38974 101 ft 13 kts 83°
2026-04-25 23:14 33.93994 -118.38866 99 ft 13 kts 83°
2026-04-25 23:14 33.94006 -118.38756 99 ft 13 kts 83°
2026-04-25 23:15 33.94017 -118.38646 102 ft 13 kts 83°
2026-04-25 23:15 33.94028 -118.38537 100 ft 13 kts 83°
2026-04-25 23:15 33.94039 -118.38427 103 ft 13 kts 83°
2026-04-25 23:15 33.94050 -118.38317 102 ft 13 kts 83°
2026-04-25 23:16 33.94062 -118.38207 99 ft 13 kts 83°
2026-04-25 23:16 33.94068 -118.38142 98 ft 6 kts 83°
2026-04-25 23:16 33.94074 -118.38083 98 ft 10 kts 83°
2026-04-25 23:16 33.94056 -118.38017 98 ft 7 kts 144°
2026-04-25 23:17 33.94008 -118.38009 99 ft 10 kts 200°
2026-04-25 23:17 33.93975 -118.38090 98 ft 9 kts 266°
2026-04-25 23:17 33.93972 -118.38133 99 ft 3 kts 264°
2026-04-25 23:17 33.93962 -118.38241 104 ft 28 kts 263°
2026-04-25 23:18 33.93909 -118.38752 101 ft 96 kts 263°
2026-04-25 23:18 33.93800 -118.39804 106 ft 155 kts 263°
2026-04-25 23:18 33.93666 -118.41223 283 ft 181 kts 263°
2026-04-25 23:18 33.93533 -118.42734 864 ft 183 kts 261°
2026-04-25 23:19 33.93381 -118.44299 1417 ft 190 kts 262°
2026-04-25 23:19 33.93225 -118.45902 2047 ft 193 kts 263°
2026-04-25 23:19 33.93069 -118.47511 2695 ft 193 kts 263°
2026-04-25 23:19 33.92909 -118.49138 3238 ft 199 kts 262°
2026-04-25 23:20 33.92747 -118.50801 3836 ft 200 kts 262°
2026-04-25 23:20 33.92573 -118.52482 4349 ft 204 kts 257°
2026-04-25 23:20 33.92124 -118.54102 4954 ft 200 kts 248°
2026-04-25 23:20 33.91564 -118.55661 5457 ft 204 kts 246°
2026-04-25 23:21 33.90988 -118.57234 6002 ft 205 kts 246°
2026-04-25 23:21 33.90317 -118.58768 6334 ft 216 kts 228°
2026-04-25 23:21 33.88953 -118.59643 6465 ft 239 kts 188°
2026-04-25 23:21 33.87254 -118.59255 6625 ft 266 kts 150°
2026-04-25 23:22 33.85960 -118.57610 7032 ft 283 kts 117°
2026-04-25 23:22 33.85526 -118.55274 7617 ft 291 kts 91°
2026-04-25 23:22 33.85348 -118.52852 8197 ft 293 kts 110°
2026-04-25 23:23 33.84257 -118.48167 9321 ft 303 kts 83°
2026-04-25 23:23 33.85035 -118.45826 10006 ft 306 kts 51°
2026-04-25 23:23 33.86689 -118.44223 10477 ft 313 kts 22°
2026-04-25 23:23 33.88791 -118.43318 10614 ft 330 kts 16°
2026-04-25 23:24 33.91011 -118.42431 10750 ft 347 kts 10°
2026-04-25 23:24 33.93464 -118.42137 10915 ft 363 kts 358°
2026-04-25 23:24 33.96021 -118.41733 11023 ft 384 kts 19°
2026-04-25 23:24 33.98333 -118.40014 11474 ft 400 kts 44°
2026-04-25 23:25 33.99913 -118.37239 12068 ft 408 kts 69°
2026-04-25 23:25 34.00716 -118.33958 12551 ft 412 kts 78°
2026-04-25 23:25 34.01633 -118.30621 13028 ft 425 kts 68°
2026-04-25 23:25 34.02912 -118.27381 13704 ft 432 kts 65°
2026-04-25 23:26 34.04327 -118.24164 14405 ft 436 kts 61°
2026-04-25 23:26 34.05905 -118.21029 15193 ft 439 kts 58°
2026-04-25 23:26 34.07605 -118.17948 15945 ft 443 kts 56°
2026-04-25 23:26 34.09370 -118.14864 16604 ft 449 kts 56°
2026-04-25 23:27 34.11158 -118.11738 17259 ft 455 kts 57°
2026-04-25 23:27 34.12937 -118.08601 17924 ft 460 kts 57°
2026-04-25 23:27 34.14745 -118.05398 18533 ft 464 kts 57°
2026-04-25 23:27 34.16572 -118.02155 19064 ft 470 kts 57°
2026-04-25 23:28 34.18417 -117.98872 19608 ft 475 kts 57°
2026-04-25 23:28 34.20282 -117.95552 20158 ft 480 kts 57°
2026-04-25 23:28 34.22164 -117.92199 20737 ft 485 kts 57°
2026-04-25 23:28 34.24074 -117.88796 21288 ft 490 kts 57°
2026-04-25 23:29 34.25996 -117.85369 21794 ft 496 kts 57°
2026-04-25 23:29 34.27942 -117.81897 22294 ft 501 kts 57°
2026-04-25 23:29 34.29905 -117.78389 22820 ft 506 kts 57°
2026-04-25 23:29 34.31889 -117.74839 23320 ft 510 kts 57°
2026-04-25 23:30 34.33880 -117.71274 23742 ft 515 kts 57°
2026-04-25 23:30 34.35899 -117.67677 24175 ft 518 kts 56°
2026-04-25 23:30 34.37989 -117.64101 24659 ft 521 kts 55°
2026-04-25 23:30 34.40100 -117.60587 25069 ft 524 kts 54°
2026-04-25 23:31 34.42269 -117.57007 25446 ft 528 kts 54°
2026-04-25 23:31 34.44443 -117.53414 25854 ft 531 kts 55°
2026-04-25 23:31 34.46618 -117.49801 26381 ft 531 kts 55°
2026-04-25 23:31 34.48794 -117.46163 26818 ft 533 kts 55°
2026-04-25 23:32 34.50977 -117.42494 27190 ft 537 kts 56°
2026-04-25 23:32 34.53168 -117.38803 27535 ft 541 kts 56°
2026-04-25 23:32 34.55368 -117.35090 27917 ft 544 kts 56°
2026-04-25 23:32 34.57585 -117.31344 28267 ft 546 kts 56°
2026-04-25 23:33 34.59780 -117.27632 28625 ft 549 kts 56°
2026-04-25 23:33 34.62006 -117.23865 28954 ft 551 kts 56°
2026-04-25 23:33 34.64251 -117.20065 29267 ft 553 kts 56°
2026-04-25 23:33 34.66493 -117.16265 29622 ft 553 kts 56°
2026-04-25 23:34 34.68728 -117.12474 30108 ft 550 kts 56°
2026-04-25 23:34 34.70954 -117.08693 30476 ft 550 kts 56°
2026-04-25 23:34 34.73185 -117.04902 30782 ft 551 kts 56°
2026-04-25 23:34 34.75421 -117.01095 31041 ft 553 kts 56°
2026-04-25 23:35 34.77658 -116.97281 31327 ft 554 kts 56°
2026-04-25 23:35 34.79862 -116.93522 31645 ft 554 kts 56°
2026-04-25 23:35 34.82099 -116.89702 31945 ft 554 kts 56°
2026-04-25 23:35 34.84336 -116.85876 32309 ft 552 kts 56°
2026-04-25 23:36 34.86561 -116.82068 32626 ft 552 kts 56°
2026-04-25 23:36 34.88069 -116.79485 32739 ft 554 kts 56°
2026-04-25 23:36 34.91042 -116.74399 32808 ft 559 kts 54°
2026-04-25 23:37 34.95173 -116.68350 32804 ft 556 kts 47°
2026-04-25 23:37 35.00457 -116.61505 32787 ft 553 kts 46°
2026-04-25 23:38 35.05729 -116.54674 32761 ft 552 kts 46°
2026-04-25 23:38 35.10946 -116.47811 32743 ft 551 kts 47°
2026-04-25 23:39 35.16131 -116.40935 32776 ft 550 kts 47°
2026-04-25 23:39 35.21301 -116.34065 32779 ft 549 kts 47°
2026-04-25 23:40 35.26477 -116.27182 32750 ft 549 kts 47°
2026-04-25 23:40 35.31599 -116.20355 32745 ft 548 kts 47°
2026-04-25 23:41 35.36762 -116.13466 32759 ft 549 kts 47°
2026-04-25 23:41 35.41929 -116.06558 32764 ft 550 kts 47°
2026-04-25 23:42 35.47105 -115.99619 32768 ft 551 kts 47°
2026-04-25 23:42 35.52285 -115.92659 32751 ft 551 kts 47°
2026-04-25 23:43 35.57418 -115.85749 32770 ft 550 kts 47°
2026-04-25 23:43 35.62570 -115.78801 32780 ft 549 kts 47°
2026-04-25 23:44 35.67695 -115.71822 32785 ft 549 kts 47°
2026-04-25 23:44 35.72788 -115.64807 32775 ft 549 kts 47°
2026-04-25 23:45 35.77867 -115.57798 32792 ft 548 kts 47°
2026-04-25 23:45 35.82941 -115.50794 32812 ft 548 kts 47°
2026-04-25 23:46 35.87990 -115.43815 32797 ft 548 kts 47°
2026-04-25 23:46 35.93051 -115.36804 32783 ft 546 kts 47°
2026-04-25 23:47 35.98099 -115.29794 32791 ft 545 kts 47°
2026-04-25 23:47 36.03139 -115.22780 32747 ft 546 kts 47°
2026-04-25 23:48 36.08167 -115.15723 32745 ft 546 kts 50°
2026-04-25 23:48 36.12705 -115.08194 32750 ft 547 kts 54°
2026-04-25 23:49 36.17123 -115.00523 32701 ft 548 kts 54°
2026-04-25 23:49 36.21563 -114.92838 32687 ft 548 kts 54°
2026-04-25 23:50 36.25992 -114.85224 32690 ft 548 kts 54°
2026-04-25 23:50 36.30462 -114.77546 32669 ft 548 kts 54°
2026-04-25 23:51 36.34921 -114.69868 32657 ft 548 kts 54°
2026-04-25 23:51 36.39365 -114.62193 32640 ft 547 kts 54°
2026-04-25 23:52 36.43810 -114.54498 32645 ft 547 kts 54°
2026-04-25 23:52 36.48240 -114.46808 32641 ft 547 kts 54°
2026-04-25 23:53 36.52645 -114.39148 32655 ft 547 kts 54°
2026-04-25 23:53 36.57067 -114.31440 32651 ft 546 kts 54°
2026-04-25 23:54 36.61473 -114.23744 32671 ft 545 kts 54°
2026-04-25 23:54 36.65867 -114.16049 32657 ft 545 kts 54°
2026-04-25 23:55 36.70251 -114.08356 32668 ft 544 kts 54°
2026-04-25 23:55 36.74594 -114.00717 32670 ft 542 kts 54°
2026-04-25 23:56 36.78948 -113.93041 32699 ft 542 kts 54°
2026-04-25 23:56 36.83299 -113.85354 32704 ft 542 kts 54°
2026-04-25 23:57 36.87652 -113.77648 32725 ft 543 kts 54°
2026-04-25 23:57 36.92006 -113.69917 32736 ft 543 kts 54°
2026-04-25 23:58 36.96346 -113.62194 32748 ft 543 kts 54°
2026-04-25 23:58 37.00656 -113.54509 32763 ft 542 kts 54°
2026-04-25 23:59 37.04985 -113.46773 32759 ft 543 kts 54°
2026-04-25 23:59 37.09311 -113.39023 32726 ft 543 kts 54°
2026-04-26 00:00 37.13638 -113.31254 32759 ft 543 kts 54°
2026-04-26 00:00 37.17967 -113.23464 32774 ft 544 kts 54°
2026-04-26 00:01 37.22262 -113.15716 32779 ft 544 kts 54°
2026-04-26 00:01 37.26589 -113.07892 32773 ft 545 kts 54°
2026-04-26 00:02 37.30906 -113.00068 32746 ft 544 kts 54°
2026-04-26 00:02 37.35210 -112.92251 32750 ft 544 kts 54°
2026-04-26 00:03 37.39508 -112.84422 32757 ft 543 kts 54°
2026-04-26 00:03 37.43771 -112.76643 32734 ft 542 kts 55°
2026-04-26 00:04 37.48049 -112.68817 32749 ft 542 kts 55°
2026-04-26 00:04 37.52318 -112.60989 32755 ft 541 kts 55°
2026-04-26 00:05 37.56584 -112.53147 32749 ft 542 kts 55°
2026-04-26 00:05 37.60840 -112.45305 32835 ft 542 kts 55°
2026-04-26 00:06 37.65073 -112.37487 32847 ft 544 kts 55°
2026-04-26 00:06 37.69429 -112.29652 32885 ft 544 kts 50°
2026-04-26 00:07 37.74470 -112.22524 32908 ft 544 kts 45°
2026-04-26 00:07 37.79649 -112.15532 32894 ft 545 kts 45°
2026-04-26 00:08 37.84803 -112.08501 32869 ft 545 kts 45°
2026-04-26 00:08 37.89937 -112.01412 32833 ft 545 kts 46°
2026-04-26 00:09 37.95018 -111.94354 32805 ft 546 kts 46°
2026-04-26 00:09 38.00129 -111.87240 32776 ft 545 kts 46°
2026-04-26 00:10 38.05234 -111.80127 32794 ft 544 kts 46°
2026-04-26 00:10 38.10329 -111.73014 32788 ft 544 kts 46°
2026-04-26 00:11 38.15409 -111.65905 32792 ft 543 kts 46°
2026-04-26 00:11 38.20481 -111.58792 32793 ft 542 kts 46°
2026-04-26 00:12 38.25550 -111.51666 32777 ft 543 kts 46°
2026-04-26 00:12 38.30616 -111.44529 32773 ft 543 kts 46°
2026-04-26 00:13 38.35640 -111.37436 32763 ft 543 kts 46°
2026-04-26 00:13 38.40702 -111.30273 32750 ft 543 kts 46°
2026-04-26 00:14 38.45762 -111.23095 32743 ft 543 kts 46°
2026-04-26 00:14 38.50813 -111.15914 32747 ft 543 kts 46°
2026-04-26 00:15 38.55864 -111.08716 32736 ft 543 kts 46°
2026-04-26 00:15 38.60905 -111.01519 32743 ft 543 kts 46°
2026-04-26 00:16 38.65903 -110.94364 32736 ft 543 kts 46°
2026-04-26 00:16 38.70922 -110.87163 32720 ft 542 kts 46°
2026-04-26 00:17 38.75930 -110.79962 32727 ft 541 kts 46°
2026-04-26 00:17 38.80933 -110.72753 32715 ft 540 kts 46°
2026-04-26 00:18 38.85919 -110.65550 32723 ft 540 kts 46°
2026-04-26 00:18 38.90909 -110.58326 32721 ft 540 kts 46°
2026-04-26 00:19 38.95893 -110.51094 32718 ft 540 kts 46°
2026-04-26 00:19 39.00844 -110.43893 32686 ft 541 kts 46°
2026-04-26 00:20 39.05826 -110.36630 32698 ft 542 kts 46°
2026-04-26 00:20 39.10811 -110.29347 32737 ft 542 kts 46°
2026-04-26 00:21 39.15800 -110.22040 32697 ft 544 kts 46°
2026-04-26 00:21 39.20792 -110.14711 32685 ft 543 kts 46°
2026-04-26 00:22 39.25767 -110.07389 32702 ft 542 kts 46°
2026-04-26 00:22 39.29896 -110.01300 32705 ft 541 kts 46°
2026-04-26 00:23 39.34845 -109.93987 32710 ft 540 kts 46°
2026-04-26 00:23 39.39761 -109.86705 32708 ft 540 kts 46°
2026-04-26 00:24 39.44690 -109.79388 32715 ft 539 kts 46°
2026-04-26 00:24 39.49610 -109.72065 32704 ft 539 kts 46°
2026-04-26 00:25 39.54531 -109.64725 32705 ft 539 kts 46°
2026-04-26 00:25 39.59422 -109.57413 32700 ft 539 kts 46°
2026-04-26 00:26 39.64331 -109.50055 32689 ft 540 kts 46°
2026-04-26 00:26 39.69250 -109.42666 32718 ft 540 kts 46°
2026-04-26 00:27 39.74176 -109.35249 32677 ft 543 kts 46°
2026-04-26 00:27 39.79093 -109.27827 32677 ft 544 kts 46°
2026-04-26 00:28 39.84038 -109.20344 32679 ft 546 kts 46°
2026-04-26 00:28 39.88988 -109.12837 32674 ft 546 kts 46°
2026-04-26 00:29 39.93932 -109.05318 32707 ft 546 kts 46°
2026-04-26 00:29 39.98869 -108.97792 32713 ft 546 kts 46°
2026-04-26 00:30 40.03800 -108.90259 32702 ft 545 kts 46°
2026-04-26 00:30 40.08720 -108.82723 32704 ft 544 kts 46°
2026-04-26 00:31 40.13587 -108.75251 32714 ft 543 kts 46°
2026-04-26 00:31 40.18487 -108.67709 32715 ft 543 kts 46°
2026-04-26 00:32 40.23383 -108.60156 32727 ft 543 kts 46°
2026-04-26 00:32 40.30719 -108.48805 32733 ft 545 kts 46°
2026-04-26 00:33 40.35617 -108.41201 32726 ft 547 kts 46°
2026-04-26 00:33 40.40529 -108.33558 32722 ft 548 kts 46°
2026-04-26 00:34 40.45404 -108.25952 32738 ft 548 kts 46°
2026-04-26 00:34 40.50315 -108.18272 32733 ft 548 kts 47°
2026-04-26 00:35 40.55222 -108.10578 32769 ft 549 kts 47°
2026-04-26 00:35 40.60126 -108.02870 32750 ft 550 kts 47°
2026-04-26 00:36 40.65038 -107.95131 32762 ft 551 kts 47°
2026-04-26 00:36 40.69951 -107.87369 32770 ft 552 kts 47°
2026-04-26 00:37 40.74861 -107.79594 32785 ft 552 kts 47°
2026-04-26 00:37 40.79770 -107.71799 32818 ft 552 kts 47°
2026-04-26 00:38 40.84644 -107.64040 32855 ft 552 kts 46°
2026-04-26 00:38 40.89547 -107.56215 32875 ft 553 kts 46°
2026-04-26 00:39 40.94441 -107.48386 32899 ft 552 kts 47°
2026-04-26 00:39 40.99333 -107.40539 32891 ft 552 kts 47°
2026-04-26 00:40 41.04210 -107.32695 32892 ft 551 kts 46°
2026-04-26 00:40 41.09079 -107.24845 32875 ft 551 kts 46°
2026-04-26 00:41 41.13948 -107.16974 32853 ft 552 kts 46°
2026-04-26 00:41 41.18814 -107.09089 32833 ft 552 kts 46°
2026-04-26 00:42 41.23673 -107.01193 32809 ft 552 kts 46°
2026-04-26 00:42 41.28493 -106.93341 32815 ft 551 kts 46°
2026-04-26 00:43 41.33331 -106.85438 32883 ft 550 kts 46°
2026-04-26 00:43 41.38166 -106.77521 32930 ft 551 kts 46°
2026-04-26 00:44 41.43002 -106.69582 32886 ft 553 kts 46°
2026-04-26 00:44 41.47847 -106.61606 32885 ft 554 kts 46°
2026-04-26 00:45 41.52706 -106.53588 32783 ft 556 kts 46°
2026-04-26 00:45 41.57532 -106.45600 32789 ft 556 kts 47°
2026-04-26 00:46 41.62388 -106.37540 32788 ft 556 kts 47°
2026-04-26 00:46 41.67240 -106.29468 32786 ft 556 kts 47°
2026-04-26 00:47 41.72084 -106.21385 32783 ft 556 kts 47°
2026-04-26 00:47 41.76897 -106.13333 32779 ft 556 kts 47°
2026-04-26 00:48 41.81717 -106.05251 32795 ft 555 kts 47°
2026-04-26 00:48 41.86704 -105.97384 32821 ft 551 kts 39°
2026-04-26 00:49 41.92146 -105.90143 32852 ft 551 kts 38°
2026-04-26 00:49 41.97648 -105.82918 32833 ft 554 kts 38°
2026-04-26 00:50 42.03140 -105.75605 32872 ft 557 kts 38°
2026-04-26 00:50 42.08632 -105.68209 32867 ft 559 kts 39°
2026-04-26 00:51 42.14124 -105.60779 32912 ft 559 kts 38°
2026-04-26 00:51 42.19568 -105.53399 32903 ft 556 kts 38°
2026-04-26 00:52 42.25009 -105.46011 32945 ft 553 kts 38°
2026-04-26 00:52 42.30409 -105.38668 32949 ft 549 kts 38°
2026-04-26 00:53 42.35770 -105.31353 32991 ft 547 kts 38°
2026-04-26 00:53 42.41121 -105.24037 33033 ft 545 kts 38°
2026-04-26 00:54 42.46459 -105.16720 33014 ft 546 kts 38°
2026-04-26 00:54 42.51773 -105.09420 33011 ft 548 kts 38°
2026-04-26 00:55 42.57133 -105.02033 33025 ft 549 kts 38°
2026-04-26 00:55 42.62501 -104.94614 33022 ft 550 kts 38°
2026-04-26 00:56 42.67866 -104.87180 33044 ft 551 kts 39°
2026-04-26 00:56 42.73228 -104.79730 33019 ft 550 kts 39°
2026-04-26 00:57 42.78534 -104.72338 33034 ft 549 kts 39°
2026-04-26 00:57 42.83864 -104.64895 33013 ft 548 kts 39°
2026-04-26 00:58 42.89180 -104.57453 33039 ft 547 kts 39°
2026-04-26 00:58 42.94497 -104.49991 33054 ft 548 kts 39°
2026-04-26 00:59 42.99795 -104.42534 33046 ft 547 kts 39°
2026-04-26 00:59 43.05090 -104.35061 33058 ft 547 kts 39°
2026-04-26 01:00 43.10348 -104.27620 33058 ft 547 kts 39°
2026-04-26 01:00 43.15645 -104.20107 33112 ft 548 kts 39°
2026-04-26 01:01 43.20938 -104.12579 33066 ft 549 kts 39°
2026-04-26 01:01 43.26230 -104.05031 33066 ft 548 kts 39°
2026-04-26 01:02 43.31517 -103.97468 33069 ft 548 kts 39°
2026-04-26 01:02 43.36799 -103.89893 33069 ft 548 kts 39°
2026-04-26 01:03 43.42047 -103.82350 33079 ft 549 kts 40°
2026-04-26 01:03 43.47322 -103.74744 33078 ft 549 kts 40°
2026-04-26 01:04 43.52598 -103.67117 33077 ft 550 kts 40°
2026-04-26 01:04 43.57878 -103.59463 33079 ft 550 kts 40°
2026-04-26 01:05 43.63117 -103.51848 33025 ft 550 kts 40°
2026-04-26 01:05 43.68374 -103.44186 33001 ft 549 kts 40°
2026-04-26 01:06 43.73619 -103.36519 33016 ft 547 kts 40°
2026-04-26 01:06 43.78840 -103.28868 33053 ft 546 kts 40°
2026-04-26 01:07 43.84048 -103.21215 33057 ft 546 kts 41°
2026-04-26 01:07 43.89256 -103.13543 33074 ft 547 kts 41°
2026-04-26 01:08 43.94433 -103.05894 33053 ft 547 kts 41°
2026-04-26 01:08 43.99810 -102.98464 33037 ft 541 kts 34°
2026-04-26 01:09 44.05612 -102.91830 33053 ft 540 kts 32°
2026-04-26 01:09 44.11460 -102.85219 33061 ft 541 kts 33°
2026-04-26 01:10 44.17276 -102.78546 33051 ft 542 kts 33°
2026-04-26 01:10 44.22098 -102.72958 33064 ft 542 kts 33°
2026-04-26 01:11 44.27888 -102.66219 33091 ft 542 kts 33°
2026-04-26 01:11 44.33691 -102.59455 33099 ft 543 kts 34°
2026-04-26 01:12 44.39499 -102.52671 33101 ft 543 kts 34°
2026-04-26 01:12 44.45269 -102.45914 33084 ft 543 kts 34°
2026-04-26 01:13 44.51061 -102.39113 33090 ft 543 kts 34°
2026-04-26 01:13 44.56859 -102.32288 33082 ft 544 kts 34°
2026-04-26 01:14 44.62651 -102.25451 33100 ft 544 kts 34°
2026-04-26 01:14 44.68456 -102.18578 33087 ft 544 kts 34°
2026-04-26 01:15 44.74205 -102.11754 33155 ft 544 kts 35°
2026-04-26 01:15 44.79996 -102.04862 33092 ft 545 kts 35°
2026-04-26 01:16 44.85793 -101.97943 33090 ft 545 kts 35°
2026-04-26 01:16 44.91584 -101.91013 33084 ft 546 kts 35°
2026-04-26 01:17 44.97371 -101.84068 33122 ft 546 kts 36°
2026-04-26 01:17 45.03163 -101.77097 33091 ft 546 kts 36°
2026-04-26 01:18 45.08857 -101.70038 33081 ft 549 kts 41°
2026-04-26 01:18 45.14092 -101.62153 33088 ft 550 kts 44°
2026-04-26 01:19 45.19244 -101.54144 33121 ft 550 kts 44°
2026-04-26 01:19 45.24419 -101.46135 33083 ft 550 kts 44°
2026-04-26 01:20 45.29602 -101.38163 33082 ft 549 kts 44°
2026-04-26 01:20 45.34775 -101.30208 33078 ft 548 kts 44°
2026-04-26 01:21 45.39940 -101.22240 33075 ft 547 kts 44°
2026-04-26 01:21 45.45060 -101.14312 33082 ft 547 kts 44°
2026-04-26 01:22 45.50208 -101.06314 33075 ft 546 kts 44°
2026-04-26 01:22 45.55339 -100.98318 33071 ft 545 kts 44°
2026-04-26 01:23 45.60430 -100.90364 33068 ft 545 kts 44°
2026-04-26 01:23 45.65540 -100.82357 33095 ft 546 kts 45°
2026-04-26 01:24 45.70659 -100.74314 33074 ft 546 kts 45°
2026-04-26 01:24 45.75762 -100.66269 33047 ft 545 kts 45°
2026-04-26 01:25 45.80850 -100.58226 33049 ft 545 kts 45°
2026-04-26 01:25 45.85936 -100.50161 33058 ft 545 kts 45°
2026-04-26 01:26 45.91023 -100.42074 33078 ft 545 kts 45°
2026-04-26 01:26 45.96070 -100.34024 33054 ft 545 kts 45°
2026-04-26 01:27 46.01133 -100.25925 33052 ft 544 kts 45°
2026-04-26 01:27 46.06184 -100.17822 33059 ft 544 kts 46°
2026-04-26 01:28 46.11240 -100.09687 33076 ft 544 kts 46°
2026-04-26 01:28 46.16295 -100.01529 33075 ft 545 kts 46°
2026-04-26 01:29 46.21341 -99.93360 33055 ft 544 kts 46°
2026-04-26 01:29 46.26375 -99.85187 33070 ft 544 kts 46°
2026-04-26 01:30 46.31378 -99.77041 33079 ft 544 kts 46°
2026-04-26 01:30 46.36399 -99.68840 33075 ft 545 kts 46°
2026-04-26 01:31 46.41430 -99.60598 33071 ft 546 kts 46°
2026-04-26 01:31 46.46464 -99.52327 33086 ft 547 kts 46°
2026-04-26 01:32 46.51505 -99.44018 33080 ft 549 kts 46°
2026-04-26 01:32 46.56522 -99.35724 33085 ft 550 kts 46°
2026-04-26 01:33 46.61563 -99.27365 33101 ft 550 kts 47°
2026-04-26 01:33 46.66600 -99.18986 33086 ft 549 kts 47°
2026-04-26 01:34 46.71615 -99.10616 33085 ft 547 kts 47°
2026-04-26 01:34 46.76604 -99.02267 33073 ft 545 kts 47°
2026-04-26 01:35 46.81579 -98.93915 33070 ft 544 kts 47°
2026-04-26 01:35 46.86521 -98.85594 33056 ft 545 kts 47°
2026-04-26 01:36 46.91489 -98.77203 33039 ft 545 kts 47°
2026-04-26 01:37 46.98935 -98.64576 33038 ft 545 kts 47°
2026-04-26 01:37 47.03887 -98.56146 33039 ft 546 kts 47°
2026-04-26 01:38 47.08819 -98.47726 33096 ft 548 kts 48°
2026-04-26 01:38 47.13792 -98.39209 33095 ft 548 kts 48°
2026-04-26 01:39 47.18746 -98.30695 33084 ft 548 kts 48°
2026-04-26 01:39 47.23691 -98.22171 33077 ft 547 kts 48°
2026-04-26 01:40 47.28628 -98.13634 33095 ft 547 kts 48°
2026-04-26 01:40 47.33550 -98.05098 33109 ft 547 kts 48°
2026-04-26 01:41 47.38451 -97.96571 33094 ft 546 kts 48°
2026-04-26 01:41 47.43356 -97.88007 33087 ft 545 kts 48°
2026-04-26 01:42 47.48249 -97.79439 33093 ft 544 kts 49°
2026-04-26 01:42 47.53089 -97.70937 33092 ft 543 kts 49°
2026-04-26 01:43 47.57955 -97.62363 33084 ft 543 kts 49°
2026-04-26 01:43 47.62816 -97.53771 33073 ft 543 kts 49°
2026-04-26 01:44 47.67670 -97.45163 33101 ft 543 kts 49°
2026-04-26 01:44 47.72481 -97.36604 33096 ft 544 kts 49°
2026-04-26 01:45 47.77330 -97.27950 33100 ft 544 kts 49°
2026-04-26 01:45 47.82177 -97.19272 33070 ft 545 kts 49°
2026-04-26 01:46 47.87024 -97.10566 33075 ft 545 kts 50°
2026-04-26 01:46 47.91821 -97.01920 33060 ft 545 kts 50°
2026-04-26 01:47 47.96650 -96.93190 33068 ft 546 kts 50°
2026-04-26 01:47 48.01473 -96.84445 33094 ft 546 kts 50°
2026-04-26 01:48 48.06290 -96.75678 33083 ft 546 kts 50°
2026-04-26 01:48 48.11101 -96.66897 33092 ft 545 kts 50°
2026-04-26 01:49 48.15906 -96.58096 33110 ft 545 kts 50°
2026-04-26 01:49 48.20699 -96.49289 33108 ft 545 kts 50°
2026-04-26 01:50 48.25486 -96.40464 33098 ft 545 kts 50°
2026-04-26 01:50 48.30233 -96.31684 33108 ft 545 kts 51°
2026-04-26 01:51 48.35018 -96.22804 33121 ft 545 kts 51°
2026-04-26 01:51 48.39797 -96.13906 33121 ft 545 kts 51°
2026-04-26 01:52 48.44554 -96.05020 33125 ft 545 kts 51°
2026-04-26 01:52 48.49305 -95.96117 33127 ft 545 kts 51°
2026-04-26 01:53 48.54031 -95.87229 33114 ft 545 kts 51°
2026-04-26 01:53 48.58775 -95.78279 33115 ft 544 kts 51°
2026-04-26 01:54 48.63477 -95.69378 33110 ft 544 kts 51°
2026-04-26 01:54 48.68197 -95.60414 33116 ft 543 kts 52°
2026-04-26 01:55 48.72901 -95.51450 33106 ft 544 kts 52°
2026-04-26 01:55 48.77611 -95.42443 33102 ft 545 kts 52°
2026-04-26 01:56 48.82290 -95.33467 33100 ft 546 kts 52°
2026-04-26 01:56 48.86993 -95.24414 33059 ft 546 kts 52°
2026-04-26 01:57 48.91689 -95.15343 33094 ft 546 kts 52°
2026-04-26 01:57 48.96389 -95.06234 33101 ft 547 kts 52°
2026-04-26 01:58 49.00291 -94.98648 33107 ft 547 kts 52°
2026-04-26 01:58 49.04976 -94.89512 33101 ft 546 kts 52°
2026-04-26 01:59 49.09643 -94.80377 33090 ft 545 kts 52°
2026-04-26 01:59 49.14296 -94.71240 33104 ft 544 kts 53°
2026-04-26 02:00 49.18916 -94.62136 33108 ft 544 kts 53°
2026-04-26 02:00 49.23551 -94.52972 33127 ft 545 kts 53°
2026-04-26 02:01 49.28184 -94.43779 33097 ft 544 kts 53°
2026-04-26 02:01 49.32777 -94.34636 33092 ft 543 kts 53°
2026-04-26 02:02 49.37385 -94.25429 33098 ft 543 kts 53°
2026-04-26 02:02 49.41983 -94.16211 33102 ft 543 kts 53°
2026-04-26 02:03 49.46646 -94.07060 33113 ft 544 kts 49°
2026-04-26 02:03 49.52080 -93.98979 33095 ft 543 kts 38°
2026-04-26 02:04 49.57982 -93.91746 33095 ft 542 kts 37°
2026-04-26 02:04 49.63854 -93.84551 33093 ft 542 kts 38°
2026-04-26 02:05 49.69721 -93.77253 33117 ft 542 kts 38°
2026-04-26 02:05 49.75567 -93.69906 33093 ft 541 kts 38°
2026-04-26 02:06 49.81391 -93.62553 33084 ft 540 kts 39°
2026-04-26 02:06 49.87207 -93.55192 33070 ft 539 kts 38°
2026-04-26 02:07 49.93011 -93.47829 33105 ft 540 kts 38°
2026-04-26 02:07 49.98831 -93.40424 33077 ft 541 kts 39°
2026-04-26 02:08 50.04647 -93.32998 33072 ft 541 kts 39°
2026-04-26 02:08 50.10423 -93.25599 33065 ft 541 kts 39°
2026-04-26 02:09 50.16233 -93.18131 33058 ft 541 kts 39°
2026-04-26 02:09 50.22037 -93.10649 33059 ft 540 kts 39°
2026-04-26 02:10 50.27825 -93.03161 33057 ft 539 kts 39°
2026-04-26 02:10 50.33558 -92.95721 33061 ft 538 kts 39°
2026-04-26 02:11 50.39317 -92.88223 33067 ft 538 kts 39°
2026-04-26 02:11 50.45060 -92.80721 33057 ft 537 kts 39°
2026-04-26 02:12 50.50789 -92.73213 33048 ft 535 kts 39°
2026-04-26 02:12 50.56487 -92.65721 33049 ft 534 kts 39°
2026-04-26 02:13 50.62185 -92.58206 33067 ft 533 kts 39°
2026-04-26 02:13 50.67822 -92.50747 33053 ft 531 kts 40°
2026-04-26 02:14 50.73476 -92.43240 33044 ft 530 kts 40°
2026-04-26 02:14 50.79100 -92.35747 33048 ft 528 kts 40°
2026-04-26 02:15 50.84714 -92.28244 33044 ft 527 kts 40°
2026-04-26 02:15 50.90302 -92.20753 33063 ft 526 kts 40°
2026-04-26 02:16 50.95844 -92.13298 33045 ft 525 kts 40°
2026-04-26 02:16 51.01408 -92.05789 33056 ft 524 kts 40°
2026-04-26 02:17 51.06960 -91.98273 33059 ft 524 kts 40°
2026-04-26 02:17 51.12508 -91.90737 33057 ft 525 kts 40°
2026-04-26 02:18 51.18053 -91.83181 33050 ft 524 kts 40°
2026-04-26 02:18 51.23603 -91.75592 33055 ft 525 kts 40°
2026-04-26 02:19 51.29139 -91.67998 33068 ft 525 kts 40°
2026-04-26 02:19 51.34642 -91.60424 33085 ft 525 kts 40°
2026-04-26 02:20 51.40177 -91.52781 33069 ft 524 kts 41°
2026-04-26 02:20 51.45705 -91.45123 33069 ft 523 kts 41°
2026-04-26 02:21 51.51175 -91.37518 33062 ft 523 kts 40°
2026-04-26 02:21 51.56673 -91.29850 33083 ft 523 kts 40°
2026-04-26 02:22 51.62172 -91.22156 33090 ft 524 kts 41°
2026-04-26 02:22 51.67673 -91.14433 33080 ft 524 kts 41°
2026-04-26 02:23 51.73139 -91.06733 33082 ft 524 kts 41°
2026-04-26 02:23 51.78633 -90.98968 33081 ft 524 kts 41°
2026-04-26 02:24 51.84105 -90.91208 33084 ft 522 kts 41°
2026-04-26 02:24 51.89555 -90.83452 33078 ft 520 kts 41°
2026-04-26 02:25 51.94977 -90.75711 33084 ft 518 kts 41°
2026-04-26 02:25 52.00384 -90.67965 33091 ft 517 kts 41°
2026-04-26 02:26 52.05751 -90.60251 33104 ft 517 kts 42°
2026-04-26 02:26 52.11134 -90.52488 33105 ft 516 kts 42°
2026-04-26 02:27 52.16498 -90.44725 33107 ft 515 kts 42°
2026-04-26 02:27 52.21839 -90.36972 33106 ft 514 kts 42°
2026-04-26 02:28 52.27169 -90.29206 33109 ft 513 kts 42°
2026-04-26 02:28 52.32493 -90.21425 33102 ft 512 kts 42°
2026-04-26 02:29 52.37755 -90.13708 33106 ft 511 kts 42°
2026-04-26 02:29 52.43037 -90.05935 33112 ft 510 kts 42°
2026-04-26 02:30 52.48311 -89.98149 33089 ft 509 kts 42°
2026-04-26 02:30 52.53578 -89.90346 33128 ft 509 kts 43°
2026-04-26 02:31 52.58833 -89.82535 33126 ft 510 kts 43°
2026-04-26 02:31 52.64060 -89.74739 33120 ft 510 kts 43°
2026-04-26 02:32 52.69327 -89.66856 33123 ft 510 kts 43°
2026-04-26 02:32 52.74578 -89.58971 33128 ft 510 kts 43°
2026-04-26 02:33 52.79828 -89.51062 33134 ft 510 kts 44°
2026-04-26 02:33 52.85027 -89.43201 33129 ft 509 kts 44°
2026-04-26 02:34 52.90246 -89.35282 33120 ft 508 kts 44°
2026-04-26 02:34 52.95457 -89.27350 33136 ft 508 kts 44°
2026-04-26 02:35 53.00664 -89.19398 33147 ft 508 kts 44°
2026-04-26 02:35 53.05827 -89.11485 33141 ft 507 kts 44°
2026-04-26 02:36 53.11003 -89.03523 33146 ft 506 kts 44°
2026-04-26 02:36 53.16163 -88.95561 33130 ft 505 kts 45°
2026-04-26 02:37 53.21313 -88.87586 33140 ft 504 kts 45°
2026-04-26 02:37 53.26422 -88.79648 33145 ft 504 kts 45°
2026-04-26 02:38 53.31547 -88.71658 33146 ft 503 kts 45°
2026-04-26 02:38 53.36664 -88.63650 33146 ft 503 kts 45°
2026-04-26 02:39 53.41765 -88.55642 33153 ft 503 kts 46°
2026-04-26 02:39 53.46869 -88.47601 33153 ft 502 kts 46°
2026-04-26 02:40 53.51932 -88.39597 33155 ft 502 kts 46°
2026-04-26 02:40 53.57007 -88.31547 33150 ft 501 kts 46°
2026-04-26 02:41 53.62081 -88.23470 33155 ft 501 kts 46°
2026-04-26 02:41 53.67147 -88.15377 33157 ft 502 kts 46°
2026-04-26 02:42 53.72213 -88.07257 33158 ft 502 kts 46°
2026-04-26 02:42 53.77270 -87.99125 33158 ft 501 kts 47°
2026-04-26 02:43 53.84825 -87.86918 33144 ft 499 kts 47°
2026-04-26 02:43 53.89841 -87.78779 33148 ft 499 kts 47°
2026-04-26 02:44 53.94822 -87.70667 33153 ft 498 kts 47°
2026-04-26 02:44 53.99810 -87.62518 33154 ft 497 kts 49°
2026-04-26 02:45 54.04784 -87.54363 33145 ft 496 kts 49°
2026-04-26 02:45 54.09747 -87.46196 33143 ft 495 kts 49°
2026-04-26 02:46 54.14688 -87.38035 33144 ft 494 kts 49°
2026-04-26 02:46 54.18789 -87.31242 33138 ft 493 kts 49°
2026-04-26 02:47 54.24508 -87.21735 33140 ft 492 kts 50°
2026-04-26 02:47 54.28614 -87.14884 33148 ft 492 kts 50°
2026-04-26 02:48 54.33517 -87.06677 33143 ft 492 kts 50°
2026-04-26 02:48 54.38379 -86.98510 33145 ft 493 kts 50°
2026-04-26 02:49 54.43272 -86.90264 33146 ft 493 kts 50°
2026-04-26 02:49 54.48162 -86.81992 33138 ft 493 kts 50°
2026-04-26 02:50 54.53055 -86.73687 33145 ft 493 kts 50°
2026-04-26 02:50 54.57940 -86.65365 33140 ft 493 kts 50°
2026-04-26 02:51 54.62817 -86.57028 33146 ft 493 kts 50°
2026-04-26 02:51 54.67661 -86.48718 33149 ft 494 kts 50°
2026-04-26 02:52 54.72537 -86.40320 33131 ft 494 kts 49°
2026-04-26 02:52 54.77401 -86.31915 33139 ft 494 kts 50°
2026-04-26 02:53 54.82252 -86.23503 33144 ft 493 kts 50°
2026-04-26 02:53 54.87098 -86.15069 33138 ft 492 kts 49°
2026-04-26 02:54 54.91891 -86.06698 33143 ft 491 kts 50°
2026-04-26 02:54 54.96694 -85.98281 33146 ft 489 kts 51°
2026-04-26 02:55 55.01471 -85.89877 33151 ft 487 kts 51°
2026-04-26 02:55 55.06219 -85.81492 33154 ft 485 kts 51°
2026-04-26 02:56 55.10957 -85.73094 33157 ft 484 kts 51°
2026-04-26 02:56 55.15648 -85.64750 33158 ft 484 kts 51°
2026-04-26 02:57 55.20366 -85.56334 33149 ft 482 kts 53°
2026-04-26 02:57 55.25041 -85.47965 33147 ft 479 kts 53°
2026-04-26 02:58 55.29683 -85.39620 33159 ft 476 kts 53°
2026-04-26 02:58 55.34294 -85.31301 33167 ft 474 kts 53°
2026-04-26 02:59 55.38886 -85.22983 33168 ft 473 kts 54°
2026-04-26 02:59 55.43472 -85.14647 33156 ft 474 kts 54°
2026-04-26 03:00 55.48057 -85.06286 33174 ft 474 kts 54°
2026-04-26 03:00 55.52611 -84.97952 33141 ft 474 kts 55°
2026-04-26 03:01 55.57183 -84.89557 33171 ft 474 kts 55°
2026-04-26 03:01 55.61749 -84.81142 33182 ft 473 kts 55°
2026-04-26 03:02 55.66299 -84.72726 33182 ft 473 kts 55°
2026-04-26 03:02 55.70843 -84.64293 33185 ft 472 kts 56°
2026-04-26 03:03 55.75347 -84.55900 33197 ft 472 kts 56°
2026-04-26 03:03 55.79869 -84.47442 33199 ft 472 kts 56°
2026-04-26 03:04 55.84393 -84.38954 33199 ft 472 kts 56°
2026-04-26 03:04 55.88910 -84.30447 33197 ft 472 kts 56°
2026-04-26 03:05 55.93383 -84.21996 33205 ft 471 kts 56°
2026-04-26 03:05 55.97866 -84.13493 33216 ft 470 kts 56°
2026-04-26 03:06 56.02337 -84.04980 33213 ft 469 kts 56°
2026-04-26 03:06 56.06804 -83.96443 33211 ft 469 kts 57°
2026-04-26 03:07 56.11264 -83.87890 33216 ft 469 kts 57°
2026-04-26 03:07 56.15711 -83.79331 33194 ft 469 kts 57°
2026-04-26 03:08 56.20122 -83.70810 33218 ft 469 kts 57°
2026-04-26 03:08 56.24561 -83.62201 33228 ft 470 kts 57°
2026-04-26 03:09 56.29003 -83.53557 33232 ft 470 kts 57°
2026-04-26 03:09 56.33440 -83.44891 33238 ft 471 kts 57°
2026-04-26 03:10 56.37878 -83.36193 33231 ft 471 kts 57°
2026-04-26 03:10 56.42313 -83.27467 33244 ft 471 kts 57°
2026-04-26 03:11 56.46708 -83.18787 33242 ft 471 kts 57°
2026-04-26 03:11 56.51132 -83.10019 33243 ft 471 kts 57°
2026-04-26 03:12 56.55557 -83.01214 33234 ft 471 kts 57°
2026-04-26 03:12 56.59963 -82.92418 33245 ft 471 kts 57°
2026-04-26 03:13 56.64334 -82.83657 33230 ft 470 kts 57°
2026-04-26 03:13 56.68721 -82.74830 33248 ft 470 kts 57°
2026-04-26 03:14 56.73103 -82.65977 33256 ft 471 kts 57°
2026-04-26 03:14 56.77488 -82.57086 33264 ft 472 kts 57°
2026-04-26 03:15 56.81875 -82.48159 33262 ft 472 kts 57°
2026-04-26 03:15 56.86251 -82.39222 33266 ft 472 kts 57°
2026-04-26 03:16 56.90598 -82.30310 33260 ft 471 kts 56°
2026-04-26 03:16 56.94955 -82.21341 33270 ft 472 kts 56°
2026-04-26 03:17 56.99309 -82.12345 33270 ft 472 kts 56°
2026-04-26 03:17 57.03670 -82.03300 33296 ft 472 kts 56°
2026-04-26 03:18 57.08020 -81.94244 33279 ft 473 kts 56°
2026-04-26 03:18 57.12363 -81.85166 33265 ft 473 kts 56°
2026-04-26 03:19 57.16703 -81.76062 33287 ft 473 kts 56°
2026-04-26 03:19 57.21041 -81.66924 33267 ft 473 kts 56°
2026-04-26 03:20 57.25378 -81.57753 33281 ft 473 kts 56°
2026-04-26 03:20 57.29672 -81.48640 33288 ft 473 kts 56°
2026-04-26 03:21 57.33985 -81.39450 33290 ft 472 kts 56°
2026-04-26 03:21 57.38289 -81.30242 33283 ft 472 kts 56°
2026-04-26 03:22 57.42589 -81.21006 33298 ft 473 kts 56°
2026-04-26 03:22 57.46866 -81.11784 33297 ft 473 kts 56°
2026-04-26 03:23 57.51156 -81.02498 33305 ft 474 kts 56°
2026-04-26 03:23 57.55459 -80.93147 33288 ft 474 kts 56°
2026-04-26 03:24 57.59736 -80.83816 33285 ft 473 kts 56°
2026-04-26 03:24 57.64008 -80.74458 33313 ft 473 kts 55°
2026-04-26 03:25 57.68247 -80.65137 33313 ft 473 kts 55°
2026-04-26 03:25 57.72508 -80.55727 33324 ft 474 kts 56°
2026-04-26 03:26 57.76767 -80.46287 33321 ft 474 kts 56°
2026-04-26 03:26 57.80991 -80.36886 33323 ft 474 kts 56°
2026-04-26 03:27 57.85238 -80.27395 33313 ft 474 kts 56°
2026-04-26 03:27 57.89475 -80.17888 33327 ft 474 kts 55°
2026-04-26 03:28 57.93706 -80.08359 33333 ft 475 kts 55°
2026-04-26 03:28 57.97905 -79.98740 33340 ft 473 kts 58°
2026-04-26 03:29 58.01684 -79.88747 33342 ft 471 kts 60°
2026-04-26 03:29 58.05420 -79.78578 33342 ft 471 kts 60°
2026-04-26 03:30 58.09157 -79.68406 33341 ft 471 kts 60°
2026-04-26 03:30 58.12903 -79.58223 33354 ft 472 kts 60°
2026-04-26 03:31 58.16653 -79.48005 33338 ft 473 kts 60°
2026-04-26 03:31 58.20404 -79.37750 33347 ft 473 kts 59°
2026-04-26 03:32 58.24117 -79.27552 33356 ft 472 kts 59°
2026-04-26 03:32 58.27844 -79.17266 33361 ft 472 kts 60°
2026-04-26 03:33 58.31561 -79.06966 33362 ft 472 kts 60°
2026-04-26 03:33 58.35266 -78.96652 33371 ft 472 kts 60°
2026-04-26 03:34 58.38963 -78.86318 33371 ft 471 kts 60°
2026-04-26 03:34 58.42627 -78.76030 33372 ft 471 kts 60°
2026-04-26 03:35 58.46299 -78.65675 33371 ft 470 kts 60°
2026-04-26 03:35 58.49958 -78.55311 33373 ft 470 kts 60°
2026-04-26 03:36 58.52993 -78.46680 33367 ft 470 kts 59°
2026-04-26 03:36 58.56635 -78.36280 33397 ft 471 kts 60°
2026-04-26 03:37 58.60285 -78.25812 33378 ft 472 kts 60°
2026-04-26 03:37 58.63937 -78.15293 33378 ft 473 kts 60°
2026-04-26 03:38 58.67569 -78.04785 33383 ft 474 kts 60°
2026-04-26 03:38 58.71213 -77.94197 33381 ft 474 kts 60°
2026-04-26 03:39 58.74842 -77.83604 33378 ft 473 kts 59°
2026-04-26 03:39 58.78456 -77.73006 33404 ft 473 kts 59°
2026-04-26 03:40 58.82067 -77.62371 33414 ft 473 kts 59°
2026-04-26 03:40 58.85640 -77.51799 33396 ft 473 kts 60°
2026-04-26 03:41 58.89234 -77.41117 33423 ft 473 kts 60°
2026-04-26 03:41 58.92816 -77.30420 33424 ft 474 kts 60°
2026-04-26 03:42 58.96390 -77.19701 33424 ft 474 kts 60°
2026-04-26 03:42 58.99958 -77.08949 33424 ft 474 kts 59°
2026-04-26 03:43 59.03522 -76.98164 33427 ft 475 kts 59°
2026-04-26 03:43 59.07086 -76.87329 33434 ft 476 kts 59°
2026-04-26 03:44 59.10620 -76.76533 33432 ft 476 kts 59°
2026-04-26 03:44 59.14171 -76.65634 33431 ft 476 kts 60°
2026-04-26 03:45 59.17711 -76.54719 33442 ft 476 kts 60°
2026-04-26 03:45 59.21241 -76.43784 33436 ft 476 kts 59°
2026-04-26 03:46 59.24745 -76.32879 33453 ft 477 kts 59°
2026-04-26 03:47 59.30024 -76.16355 33453 ft 478 kts 60°
2026-04-26 03:47 59.33536 -76.05296 33459 ft 478 kts 60°
2026-04-26 03:48 59.37047 -75.94188 33458 ft 478 kts 60°
2026-04-26 03:48 59.40520 -75.83148 33464 ft 478 kts 60°
2026-04-26 03:49 59.44013 -75.71990 33464 ft 479 kts 60°
2026-04-26 03:49 59.47508 -75.60773 33469 ft 480 kts 60°
2026-04-26 03:50 59.50995 -75.49527 33473 ft 481 kts 60°
2026-04-26 03:50 59.54467 -75.38277 33470 ft 480 kts 60°
2026-04-26 03:51 59.57908 -75.27070 33479 ft 480 kts 60°
2026-04-26 03:51 59.61359 -75.15777 33470 ft 479 kts 60°
2026-04-26 03:52 59.64794 -75.04482 33466 ft 480 kts 59°
2026-04-26 03:52 59.68233 -74.93117 33487 ft 482 kts 60°
2026-04-26 03:53 59.71676 -74.81685 33487 ft 483 kts 60°
2026-04-26 03:53 59.75117 -74.70203 33492 ft 484 kts 59°
2026-04-26 03:54 59.78519 -74.58793 33479 ft 483 kts 59°
2026-04-26 03:54 59.81932 -74.47291 33481 ft 482 kts 60°
2026-04-26 03:55 59.85334 -74.35766 33475 ft 483 kts 59°
2026-04-26 03:55 59.88733 -74.24197 33499 ft 485 kts 59°
2026-04-26 03:56 59.92113 -74.12633 33495 ft 487 kts 59°
2026-04-26 03:56 59.95516 -74.00930 33494 ft 488 kts 59°
2026-04-26 03:57 59.98917 -73.89173 33496 ft 489 kts 59°
2026-04-26 03:57 60.02307 -73.77396 33504 ft 488 kts 59°
2026-04-26 03:58 60.05676 -73.65632 33492 ft 487 kts 59°
2026-04-26 03:58 60.09032 -73.53852 33517 ft 487 kts 59°
2026-04-26 03:59 60.12361 -73.42105 33520 ft 487 kts 59°
2026-04-26 03:59 60.15695 -73.30280 33520 ft 487 kts 59°
2026-04-26 04:00 60.19020 -73.18426 33509 ft 487 kts 60°
2026-04-26 04:00 60.22348 -73.06502 33512 ft 488 kts 60°
2026-04-26 04:01 60.25659 -72.94570 33524 ft 488 kts 59°
2026-04-26 04:01 60.28944 -72.82674 33527 ft 489 kts 59°
2026-04-26 04:02 60.32244 -72.70661 33526 ft 490 kts 59°
2026-04-26 04:02 60.35540 -72.58597 33535 ft 491 kts 59°
2026-04-26 04:03 60.38828 -72.46498 33533 ft 491 kts 60°
2026-04-26 04:03 60.42107 -72.34368 33544 ft 491 kts 60°
2026-04-26 04:04 60.45370 -72.22228 33542 ft 491 kts 60°
2026-04-26 04:04 60.48608 -72.10118 33540 ft 490 kts 60°
2026-04-26 04:05 60.51850 -71.97931 33540 ft 489 kts 60°
2026-04-26 04:05 60.55070 -71.85758 33544 ft 488 kts 60°
2026-04-26 04:06 60.58273 -71.73583 33537 ft 488 kts 60°
2026-04-26 04:06 60.61443 -71.61467 33541 ft 487 kts 60°
2026-04-26 04:07 60.64619 -71.49263 33561 ft 487 kts 60°
2026-04-26 04:07 60.67791 -71.37009 33544 ft 489 kts 60°
2026-04-26 04:08 60.70963 -71.24688 33551 ft 491 kts 60°
2026-04-26 04:08 60.74130 -71.12313 33541 ft 492 kts 60°
2026-04-26 04:09 60.77288 -70.99907 33531 ft 491 kts 60°
2026-04-26 04:09 60.80416 -70.87547 33531 ft 491 kts 60°
2026-04-26 04:10 60.83546 -70.75115 33533 ft 490 kts 60°
2026-04-26 04:10 60.86661 -70.62666 33532 ft 491 kts 60°
2026-04-26 04:11 60.89769 -70.50182 33528 ft 491 kts 60°
2026-04-26 04:11 60.92870 -70.37652 33525 ft 491 kts 60°
2026-04-26 04:12 60.95957 -70.25104 33517 ft 491 kts 60°
2026-04-26 04:12 60.99031 -70.12541 33620 ft 493 kts 60°
2026-04-26 04:12 61.00572 -70.06215 33987 ft 492 kts 61°
2026-04-26 04:13 61.02099 -69.99926 34460 ft 489 kts 61°
2026-04-26 04:13 61.03613 -69.93674 34892 ft 486 kts 60°
2026-04-26 04:13 61.05101 -69.87510 35140 ft 487 kts 60°
2026-04-26 04:13 61.06609 -69.81250 35394 ft 487 kts 60°
2026-04-26 04:14 61.08120 -69.74966 35455 ft 489 kts 60°
2026-04-26 04:14 61.11128 -69.62384 35498 ft 486 kts 60°
2026-04-26 04:15 61.14108 -69.49844 35509 ft 484 kts 60°
2026-04-26 04:15 61.17062 -69.37343 35517 ft 482 kts 60°
2026-04-26 04:16 61.20001 -69.24839 35503 ft 482 kts 60°
2026-04-26 04:16 61.22920 -69.12347 35519 ft 481 kts 60°
2026-04-26 04:17 61.25819 -68.99870 35509 ft 483 kts 60°
2026-04-26 04:17 61.28738 -68.87236 35505 ft 485 kts 60°
2026-04-26 04:18 61.31657 -68.74521 35502 ft 487 kts 60°
2026-04-26 04:18 61.34570 -68.61756 35496 ft 488 kts 60°
2026-04-26 04:19 61.37478 -68.48935 35484 ft 489 kts 60°
2026-04-26 04:19 61.40347 -68.36202 35492 ft 486 kts 60°
2026-04-26 04:20 61.43213 -68.23415 35485 ft 485 kts 60°
2026-04-26 04:20 61.46060 -68.10637 35480 ft 484 kts 60°
2026-04-26 04:21 61.48891 -67.97858 35481 ft 484 kts 60°
2026-04-26 04:21 61.51711 -67.85048 35498 ft 484 kts 60°
2026-04-26 04:22 61.54507 -67.72268 35485 ft 485 kts 60°
2026-04-26 04:22 61.57309 -67.59385 35479 ft 486 kts 60°
2026-04-26 04:23 61.60106 -67.46440 35499 ft 487 kts 60°
2026-04-26 04:23 61.62899 -67.33439 35491 ft 489 kts 60°
2026-04-26 04:24 61.65219 -67.22572 35492 ft 490 kts 60°
2026-04-26 04:24 61.68004 -67.09465 35488 ft 491 kts 61°
2026-04-26 04:25 61.70214 -66.95726 35495 ft 499 kts 72°
2026-04-26 04:25 61.71273 -66.81182 35492 ft 503 kts 78°
2026-04-26 04:26 61.72097 -66.66515 35489 ft 503 kts 78°
2026-04-26 04:26 61.72930 -66.51847 35522 ft 503 kts 78°
2026-04-26 04:27 61.73775 -66.37283 35496 ft 504 kts 78°
2026-04-26 04:27 61.74624 -66.22609 35490 ft 504 kts 78°
2026-04-26 04:28 61.75459 -66.07906 35488 ft 504 kts 78°
2026-04-26 04:28 61.76276 -65.93189 35489 ft 505 kts 78°
2026-04-26 04:29 61.77077 -65.78447 35499 ft 505 kts 78°
2026-04-26 04:29 61.77864 -65.63665 35483 ft 505 kts 78°
2026-04-26 04:30 61.78633 -65.48914 35482 ft 505 kts 78°
2026-04-26 04:30 61.79383 -65.34207 35491 ft 504 kts 78°
2026-04-26 04:31 61.80121 -65.19452 35491 ft 504 kts 78°
2026-04-26 04:31 61.80843 -65.04674 35493 ft 506 kts 78°
2026-04-26 04:32 61.81547 -64.89929 35497 ft 508 kts 78°
2026-04-26 04:32 61.82242 -64.75048 35488 ft 508 kts 78°
2026-04-26 04:33 61.82922 -64.60127 35477 ft 509 kts 78°
2026-04-26 04:33 61.83584 -64.45227 35477 ft 509 kts 78°
2026-04-26 04:34 61.84231 -64.30304 35477 ft 509 kts 79°
2026-04-26 04:34 61.84862 -64.15370 35479 ft 509 kts 79°
2026-04-26 04:35 61.85472 -64.00518 35478 ft 508 kts 79°
2026-04-26 04:35 61.86069 -63.85614 35467 ft 507 kts 79°
2026-04-26 04:36 61.86650 -63.70722 35471 ft 508 kts 78°
2026-04-26 04:36 61.87218 -63.55764 35469 ft 510 kts 79°
2026-04-26 04:37 61.87770 -63.40748 35467 ft 512 kts 79°
2026-04-26 04:37 61.88304 -63.25783 35463 ft 513 kts 79°
2026-04-26 04:38 61.88824 -63.10707 35456 ft 512 kts 79°
2026-04-26 04:38 61.89327 -62.95636 35445 ft 512 kts 79°
2026-04-26 04:39 61.89814 -62.80582 35447 ft 511 kts 79°
2026-04-26 04:39 61.90283 -62.65564 35444 ft 510 kts 79°
2026-04-26 04:40 61.90737 -62.50512 35440 ft 510 kts 79°
2026-04-26 04:40 61.91174 -62.35503 35448 ft 509 kts 79°
2026-04-26 04:41 61.91593 -62.20511 35424 ft 509 kts 79°
2026-04-26 04:41 61.91994 -62.05594 35426 ft 509 kts 79°
2026-04-26 04:42 61.92381 -61.90587 35425 ft 509 kts 80°
2026-04-26 04:42 61.92752 -61.75567 35418 ft 509 kts 80°
2026-04-26 04:43 61.93107 -61.60530 35418 ft 509 kts 80°
2026-04-26 04:43 61.93442 -61.45615 35410 ft 508 kts 80°
2026-04-26 04:44 61.93762 -61.30627 35406 ft 508 kts 80°
2026-04-26 04:44 61.94067 -61.15653 35401 ft 507 kts 80°
2026-04-26 04:45 61.94357 -61.00634 35399 ft 510 kts 80°
2026-04-26 04:45 61.94634 -60.85506 35399 ft 514 kts 81°
2026-04-26 04:46 61.94894 -60.70270 35402 ft 517 kts 81°
2026-04-26 04:46 61.95136 -60.55033 35381 ft 519 kts 81°
2026-04-26 04:47 61.95361 -60.39699 35378 ft 519 kts 81°
2026-04-26 04:47 61.95570 -60.24397 35370 ft 517 kts 81°
2026-04-26 04:48 61.95851 -60.01498 35371 ft 516 kts 81°
2026-04-26 04:48 61.96018 -59.86268 35365 ft 514 kts 81°
2026-04-26 04:49 61.96167 -59.71061 35395 ft 514 kts 81°
2026-04-26 04:49 61.96301 -59.55853 35363 ft 515 kts 81°
2026-04-26 04:50 61.96419 -59.40594 35356 ft 516 kts 81°
2026-04-26 04:50 61.96518 -59.25410 35337 ft 518 kts 82°
2026-04-26 04:51 61.96601 -59.10079 35334 ft 519 kts 82°
2026-04-26 04:51 61.96667 -58.94724 35335 ft 520 kts 82°
2026-04-26 04:52 61.96716 -58.79317 35322 ft 521 kts 82°
2026-04-26 04:52 61.96748 -58.63929 35320 ft 521 kts 82°
2026-04-26 04:53 61.96763 -58.48501 35301 ft 521 kts 82°
2026-04-26 04:53 61.96761 -58.33199 35343 ft 521 kts 82°
2026-04-26 04:54 61.96743 -58.17759 35302 ft 523 kts 82°
2026-04-26 04:54 61.96709 -58.02301 35289 ft 523 kts 82°
2026-04-26 04:55 61.97047 -57.86985 35278 ft 517 kts 78°
2026-04-26 04:55 61.97563 -57.71762 35268 ft 516 kts 77°
2026-04-26 04:56 61.98063 -57.56510 35256 ft 517 kts 78°
2026-04-26 04:56 61.98522 -57.41237 35256 ft 517 kts 78°
2026-04-26 04:57 61.98950 -57.26060 35254 ft 517 kts 78°
2026-04-26 04:57 61.99362 -57.10802 35296 ft 516 kts 78°
2026-04-26 04:58 61.99761 -56.95504 35244 ft 518 kts 78°
2026-04-26 04:58 62.00145 -56.80170 35222 ft 519 kts 78°
2026-04-26 04:59 62.00512 -56.64801 35217 ft 520 kts 78°
2026-04-26 04:59 62.00860 -56.49474 35209 ft 521 kts 78°
2026-04-26 05:00 62.01192 -56.34101 35201 ft 520 kts 78°
2026-04-26 05:00 62.01506 -56.18705 35197 ft 519 kts 79°
2026-04-26 05:01 62.01803 -56.03357 35184 ft 518 kts 79°
2026-04-26 05:01 62.02083 -55.88028 35231 ft 518 kts 79°
2026-04-26 05:02 62.02350 -55.72664 35168 ft 520 kts 79°
2026-04-26 05:02 62.02599 -55.57218 35165 ft 521 kts 79°
2026-04-26 05:03 62.02827 -55.41840 35145 ft 522 kts 79°
2026-04-26 05:03 62.03040 -55.26363 35140 ft 522 kts 79°
2026-04-26 05:04 62.03235 -55.10926 35144 ft 521 kts 79°
2026-04-26 05:04 62.03413 -54.95565 35130 ft 521 kts 79°
2026-04-26 05:05 62.03575 -54.80125 35125 ft 521 kts 79°
2026-04-26 05:05 62.03720 -54.64679 35155 ft 522 kts 79°
2026-04-26 05:06 62.03849 -54.49174 35118 ft 524 kts 80°
2026-04-26 05:06 62.03959 -54.33630 35092 ft 525 kts 80°
2026-04-26 05:07 62.04052 -54.18083 35091 ft 525 kts 80°
2026-04-26 05:07 62.04127 -54.02495 35090 ft 526 kts 80°
2026-04-26 05:08 62.04185 -53.86878 35062 ft 526 kts 81°
2026-04-26 05:08 62.04225 -53.71364 35068 ft 526 kts 81°
2026-04-26 05:09 62.04247 -53.55799 35045 ft 524 kts 81°
2026-04-26 05:09 62.04254 -53.40252 35052 ft 525 kts 82°
2026-04-26 05:10 62.04244 -53.24756 35030 ft 526 kts 82°
2026-04-26 05:10 62.04214 -53.09140 35026 ft 527 kts 82°
2026-04-26 05:11 62.04167 -52.93497 35012 ft 528 kts 82°
2026-04-26 05:11 62.04101 -52.77869 34997 ft 528 kts 83°
2026-04-26 05:12 62.04033 -52.64773 34990 ft 527 kts 83°
2026-04-26 05:12 62.03936 -52.49237 34960 ft 526 kts 83°
2026-04-26 05:13 62.03821 -52.33637 34959 ft 525 kts 83°
2026-04-26 05:13 62.03691 -52.18045 34943 ft 526 kts 84°
2026-04-26 05:14 62.03541 -52.02507 34937 ft 527 kts 84°
2026-04-26 05:14 62.03373 -51.86938 34940 ft 526 kts 85°
2026-04-26 05:15 62.03188 -51.71356 34912 ft 525 kts 85°
2026-04-26 05:15 62.02986 -51.55805 34898 ft 525 kts 85°
2026-04-26 05:16 62.02767 -51.40271 34884 ft 525 kts 85°
2026-04-26 05:16 62.02531 -51.24732 34881 ft 525 kts 85°
2026-04-26 05:17 62.02277 -51.09199 34864 ft 525 kts 86°
2026-04-26 05:17 62.02006 -50.93647 34862 ft 525 kts 88°
2026-04-26 05:18 62.01716 -50.78134 34858 ft 524 kts 88°
2026-04-26 05:18 62.01412 -50.62721 34856 ft 523 kts 88°
2026-04-26 05:19 62.01090 -50.47272 34848 ft 522 kts 88°
2026-04-26 05:19 62.00751 -50.31818 34835 ft 522 kts 88°
2026-04-26 05:20 62.00397 -50.16374 34837 ft 522 kts 88°
2026-04-26 05:20 62.00051 -50.00918 34823 ft 521 kts 86°
2026-04-26 05:21 62.00408 -49.85598 34827 ft 517 kts 80°
2026-04-26 05:21 62.00993 -49.70324 34823 ft 518 kts 80°
2026-04-26 05:22 62.01545 -49.55091 34817 ft 519 kts 81°
2026-04-26 05:22 62.02054 -49.39724 34814 ft 520 kts 81°
2026-04-26 05:23 62.02533 -49.24333 34800 ft 521 kts 81°
2026-04-26 05:23 62.02992 -49.08970 34801 ft 519 kts 82°
2026-04-26 05:24 62.03436 -48.93637 34817 ft 517 kts 82°
2026-04-26 05:24 62.03861 -48.78433 34790 ft 517 kts 83°
2026-04-26 05:25 62.04272 -48.63149 34792 ft 516 kts 83°
2026-04-26 05:25 62.04665 -48.47870 34786 ft 515 kts 83°
2026-04-26 05:26 62.05041 -48.32620 34779 ft 515 kts 83°
2026-04-26 05:26 62.05400 -48.17355 34771 ft 516 kts 84°
2026-04-26 05:27 62.05742 -48.02084 34761 ft 515 kts 84°
2026-04-26 05:27 62.06065 -47.86912 34798 ft 515 kts 84°
2026-04-26 05:28 62.06374 -47.71641 34767 ft 516 kts 85°
2026-04-26 05:28 62.06666 -47.56338 34744 ft 515 kts 85°
2026-04-26 05:29 62.06940 -47.41078 34741 ft 515 kts 85°
2026-04-26 05:29 62.07198 -47.25765 34737 ft 515 kts 85°
2026-04-26 05:30 62.07438 -47.10561 34731 ft 514 kts 86°
2026-04-26 05:30 62.07661 -46.95314 34732 ft 514 kts 86°
2026-04-26 05:31 62.07868 -46.80086 34749 ft 514 kts 86°
2026-04-26 05:31 62.08058 -46.64845 34727 ft 514 kts 87°
2026-04-26 05:32 62.08231 -46.49592 34727 ft 513 kts 87°
2026-04-26 05:32 62.08388 -46.34351 34724 ft 513 kts 87°
2026-04-26 05:33 62.08527 -46.19128 34710 ft 513 kts 87°
2026-04-26 05:33 62.08650 -46.03912 34720 ft 512 kts 88°
2026-04-26 05:34 62.08755 -45.88735 34712 ft 511 kts 88°
2026-04-26 05:34 62.08844 -45.73669 34722 ft 510 kts 88°
2026-04-26 05:35 62.08916 -45.58513 34721 ft 510 kts 89°
2026-04-26 05:35 62.08972 -45.43378 34723 ft 509 kts 89°
2026-04-26 05:36 62.09011 -45.28287 34719 ft 509 kts 89°
2026-04-26 05:36 62.09034 -45.13165 34721 ft 508 kts 89°
2026-04-26 05:37 62.09040 -44.98059 34724 ft 508 kts 89°
2026-04-26 05:37 62.09030 -44.83099 34723 ft 507 kts 89°
2026-04-26 05:38 62.09004 -44.68022 34710 ft 507 kts 90°
2026-04-26 05:38 62.08960 -44.52940 34705 ft 507 kts 90°
2026-04-26 05:39 62.08901 -44.37881 34690 ft 506 kts 90°
2026-04-26 05:39 62.08826 -44.22946 34687 ft 506 kts 90°
2026-04-26 05:40 62.08734 -44.07922 34681 ft 505 kts 91°
2026-04-26 05:40 62.08627 -43.92935 34687 ft 503 kts 91°
2026-04-26 05:41 62.08503 -43.78037 34704 ft 501 kts 91°
2026-04-26 05:41 62.08366 -43.63253 34691 ft 500 kts 91°
2026-04-26 05:42 62.08211 -43.48412 34745 ft 499 kts 92°
2026-04-26 05:42 62.08041 -43.33606 34751 ft 499 kts 92°
2026-04-26 05:43 62.07855 -43.18816 34747 ft 499 kts 92°
2026-04-26 05:43 62.07654 -43.04007 34800 ft 498 kts 92°
2026-04-26 05:44 62.07437 -42.89246 34803 ft 497 kts 92°
2026-04-26 05:44 62.07204 -42.74491 34837 ft 497 kts 93°
2026-04-26 05:45 62.06956 -42.59757 34836 ft 497 kts 93°
2026-04-26 05:45 62.06695 -42.45140 34830 ft 497 kts 93°
2026-04-26 05:46 62.06416 -42.30413 34843 ft 496 kts 93°
2026-04-26 05:46 62.06121 -42.15694 34842 ft 496 kts 94°
2026-04-26 05:47 62.05811 -42.01002 34838 ft 495 kts 93°
2026-04-26 05:47 62.05486 -41.86340 34836 ft 494 kts 94°
2026-04-26 05:48 62.05147 -41.71734 34845 ft 493 kts 94°
2026-04-26 05:48 62.04793 -41.57136 34836 ft 492 kts 94°
2026-04-26 05:49 62.04236 -41.35358 34829 ft 491 kts 94°
2026-04-26 05:50 62.03844 -41.20816 34829 ft 491 kts 94°
2026-04-26 05:50 62.03438 -41.06301 34820 ft 491 kts 94°
2026-04-26 05:51 62.03017 -40.91799 34830 ft 489 kts 94°
2026-04-26 05:51 62.02582 -40.77336 34825 ft 488 kts 94°
2026-04-26 05:52 62.02134 -40.62920 34830 ft 488 kts 95°
2026-04-26 05:52 62.01673 -40.48611 34828 ft 487 kts 95°
2026-04-26 05:53 62.01195 -40.34222 34829 ft 487 kts 95°
2026-04-26 05:53 62.00703 -40.19838 34828 ft 487 kts 95°
2026-04-26 05:54 62.00197 -40.05451 34827 ft 487 kts 95°
2026-04-26 05:54 61.99581 -39.91064 34832 ft 487 kts 98°
2026-04-26 05:55 61.98662 -39.76860 34824 ft 487 kts 99°
2026-04-26 05:55 61.97685 -39.62587 34825 ft 488 kts 99°
2026-04-26 05:56 61.96734 -39.48297 34828 ft 488 kts 98°
2026-04-26 05:56 61.95794 -39.33989 34827 ft 488 kts 98°
2026-04-26 05:57 61.94853 -39.19793 34830 ft 488 kts 99°
2026-04-26 05:57 61.94048 -39.07836 34820 ft 488 kts 99°
2026-04-26 05:58 61.92912 -38.91269 34824 ft 488 kts 99°
2026-04-26 05:58 61.91917 -38.77016 34823 ft 488 kts 99°
2026-04-26 05:59 61.91072 -38.65072 34834 ft 487 kts 99°
2026-04-26 05:59 61.90058 -38.50939 34827 ft 487 kts 99°
2026-04-26 06:00 61.89023 -38.36726 34823 ft 487 kts 99°
2026-04-26 06:00 61.87974 -38.22538 34827 ft 487 kts 100°
2026-04-26 06:01 61.86911 -38.08355 34829 ft 487 kts 100°
2026-04-26 06:01 61.85833 -37.94195 34824 ft 487 kts 100°
2026-04-26 06:02 61.84748 -37.80131 34824 ft 487 kts 100°
2026-04-26 06:02 61.83642 -37.65998 34825 ft 487 kts 101°
2026-04-26 06:03 61.82522 -37.51863 34826 ft 487 kts 101°
2026-04-26 06:03 61.81383 -37.37708 34828 ft 487 kts 101°
2026-04-26 06:04 61.80232 -37.23578 34816 ft 487 kts 101°
2026-04-26 06:04 61.79065 -37.09441 34820 ft 488 kts 102°
2026-04-26 06:05 61.77883 -36.95320 34826 ft 488 kts 102°
2026-04-26 06:05 61.76694 -36.81291 34821 ft 488 kts 102°
2026-04-26 06:06 61.75481 -36.67161 34827 ft 489 kts 102°
2026-04-26 06:06 61.74255 -36.53059 34824 ft 489 kts 102°
2026-04-26 06:07 61.73014 -36.38958 34816 ft 489 kts 102°
2026-04-26 06:07 61.71755 -36.24843 34810 ft 489 kts 103°
2026-04-26 06:08 61.70486 -36.10771 34812 ft 488 kts 103°
2026-04-26 06:08 61.69208 -35.96784 34813 ft 488 kts 103°
2026-04-26 06:09 61.67909 -35.82729 34818 ft 489 kts 103°
2026-04-26 06:09 61.66594 -35.68676 34815 ft 489 kts 103°
2026-04-26 06:10 61.65265 -35.54634 34809 ft 489 kts 103°
2026-04-26 06:10 61.63922 -35.40605 34823 ft 488 kts 103°
2026-04-26 06:11 61.62575 -35.26695 34818 ft 488 kts 104°
2026-04-26 06:11 61.61203 -35.12693 34810 ft 488 kts 104°
2026-04-26 06:12 61.59818 -34.98713 34807 ft 488 kts 104°
2026-04-26 06:12 61.58431 -34.84859 34807 ft 488 kts 104°
2026-04-26 06:13 61.57011 -34.70842 34808 ft 488 kts 104°
2026-04-26 06:13 61.55595 -34.57016 34798 ft 488 kts 104°
2026-04-26 06:14 61.54156 -34.43110 34789 ft 488 kts 104°
2026-04-26 06:14 61.52701 -34.29193 34797 ft 487 kts 105°
2026-04-26 06:15 61.51236 -34.15338 34805 ft 487 kts 105°
2026-04-26 06:15 61.49766 -34.01580 34805 ft 487 kts 105°
2026-04-26 06:16 61.48272 -33.87747 34808 ft 487 kts 105°
2026-04-26 06:16 61.46765 -33.73927 34805 ft 487 kts 105°
2026-04-26 06:17 61.45244 -33.60118 34800 ft 487 kts 105°
2026-04-26 06:17 61.43708 -33.46315 34797 ft 487 kts 105°
2026-04-26 06:18 61.42156 -33.32516 34804 ft 487 kts 106°
2026-04-26 06:18 61.40595 -33.18765 34811 ft 487 kts 106°
2026-04-26 06:19 61.39019 -33.05020 34806 ft 487 kts 106°
2026-04-26 06:19 61.37429 -32.91292 34808 ft 486 kts 106°
2026-04-26 06:20 61.35835 -32.77657 34810 ft 486 kts 106°
2026-04-26 06:20 61.34217 -32.63950 34788 ft 486 kts 107°
2026-04-26 06:21 61.32584 -32.50251 34800 ft 487 kts 107°
2026-04-26 06:21 61.30938 -32.36570 34806 ft 487 kts 107°
2026-04-26 06:22 61.29289 -32.22987 34818 ft 486 kts 107°
2026-04-26 06:22 61.27617 -32.09344 34820 ft 486 kts 107°
2026-04-26 06:23 61.25936 -31.95755 34821 ft 485 kts 107°
2026-04-26 06:23 61.24251 -31.82251 34828 ft 485 kts 107°
2026-04-26 06:24 61.22545 -31.68708 34807 ft 485 kts 107°
2026-04-26 06:24 61.20825 -31.55179 34836 ft 486 kts 107°
2026-04-26 06:25 61.19083 -31.41593 34815 ft 487 kts 108°
2026-04-26 06:25 61.17328 -31.28029 34834 ft 487 kts 108°
2026-04-26 06:26 61.15564 -31.14503 34827 ft 486 kts 108°
2026-04-26 06:26 61.13800 -31.01104 34832 ft 485 kts 108°
2026-04-26 06:27 61.12015 -30.87662 34834 ft 484 kts 108°
2026-04-26 06:27 61.10218 -30.74248 34834 ft 483 kts 108°
2026-04-26 06:28 61.08413 -30.60884 34836 ft 482 kts 108°
2026-04-26 06:28 61.06595 -30.47536 34839 ft 482 kts 108°
2026-04-26 06:29 61.04774 -30.34275 34850 ft 481 kts 108°
2026-04-26 06:29 61.02940 -30.21022 34840 ft 480 kts 108°
2026-04-26 06:30 61.01099 -30.07822 34844 ft 478 kts 109°
2026-04-26 06:30 60.99227 -29.94667 34837 ft 477 kts 109°
2026-04-26 06:31 60.97235 -29.81669 34853 ft 479 kts 110°
2026-04-26 06:31 60.95188 -29.68597 34852 ft 481 kts 110°
2026-04-26 06:32 60.93129 -29.55452 34853 ft 483 kts 110°
2026-04-26 06:32 60.91061 -29.42267 34854 ft 484 kts 110°
2026-04-26 06:33 60.88984 -29.29096 34861 ft 485 kts 110°
2026-04-26 06:33 60.86906 -29.16022 34852 ft 485 kts 110°
2026-04-26 06:34 60.84800 -29.02872 34855 ft 485 kts 110°
2026-04-26 06:34 60.82676 -28.89709 34862 ft 486 kts 110°
2026-04-26 06:35 60.80542 -28.76582 34861 ft 486 kts 110°
2026-04-26 06:35 60.78390 -28.63440 34861 ft 487 kts 111°
2026-04-26 06:36 60.76236 -28.50381 34862 ft 487 kts 111°
2026-04-26 06:36 60.74053 -28.37245 34862 ft 486 kts 111°
2026-04-26 06:37 60.71868 -28.24186 34850 ft 485 kts 111°
2026-04-26 06:37 60.69671 -28.11155 34868 ft 485 kts 111°
2026-04-26 06:38 60.67458 -27.98118 34867 ft 486 kts 111°
2026-04-26 06:38 60.65247 -27.85187 34873 ft 486 kts 111°
2026-04-26 06:39 60.63007 -27.72174 34869 ft 486 kts 111°
2026-04-26 06:39 60.60752 -27.59168 34869 ft 487 kts 111°
2026-04-26 06:40 60.58480 -27.46153 34852 ft 488 kts 111°
2026-04-26 06:40 60.56195 -27.33161 34871 ft 488 kts 111°
2026-04-26 06:41 60.53909 -27.20248 34867 ft 489 kts 111°
2026-04-26 06:41 60.51590 -27.07233 34867 ft 490 kts 111°
2026-04-26 06:42 60.49257 -26.94233 34866 ft 490 kts 111°
2026-04-26 06:42 60.46911 -26.81252 34868 ft 490 kts 111°
2026-04-26 06:43 60.44556 -26.68307 34870 ft 489 kts 111°
2026-04-26 06:43 60.42184 -26.55362 34865 ft 490 kts 111°
2026-04-26 06:44 60.39811 -26.42494 34875 ft 491 kts 111°
2026-04-26 06:44 60.37410 -26.29560 34868 ft 491 kts 111°
2026-04-26 06:45 60.34992 -26.16624 34870 ft 491 kts 112°
2026-04-26 06:45 60.32568 -26.03740 34867 ft 491 kts 112°
2026-04-26 06:46 60.30539 -25.93018 34865 ft 490 kts 112°
2026-04-26 06:46 60.28095 -25.80186 34859 ft 491 kts 112°
2026-04-26 06:47 60.25233 -25.65263 34873 ft 492 kts 112°
2026-04-26 06:47 60.23155 -25.54496 34880 ft 493 kts 112°
2026-04-26 06:48 60.20655 -25.41626 34875 ft 494 kts 112°
2026-04-26 06:48 60.18157 -25.28847 34878 ft 494 kts 112°
2026-04-26 06:49 60.15631 -25.16004 34877 ft 495 kts 112°
2026-04-26 06:49 60.13088 -25.03159 34878 ft 495 kts 112°
2026-04-26 06:50 60.10529 -24.90321 34879 ft 496 kts 112°
2026-04-26 06:50 60.07955 -24.77483 34884 ft 496 kts 112°
2026-04-26 06:51 60.05380 -24.64729 34888 ft 497 kts 112°
2026-04-26 06:51 60.01467 -24.45492 34888 ft 498 kts 112°
2026-04-26 06:52 59.98836 -24.32659 34892 ft 499 kts 113°
2026-04-26 06:52 59.96187 -24.19824 34887 ft 500 kts 113°
2026-04-26 06:53 59.93520 -24.06980 34903 ft 502 kts 113°
2026-04-26 06:53 59.90849 -23.94200 34899 ft 503 kts 113°
2026-04-26 06:54 59.88140 -23.81316 34906 ft 504 kts 113°
2026-04-26 06:54 59.85414 -23.68432 34917 ft 505 kts 113°
2026-04-26 06:55 59.82675 -23.55566 34905 ft 505 kts 113°
2026-04-26 06:55 59.79921 -23.42711 34898 ft 506 kts 114°
2026-04-26 06:56 59.77150 -23.29857 34911 ft 506 kts 114°
2026-04-26 06:56 59.74365 -23.17017 34911 ft 507 kts 114°
2026-04-26 06:57 59.71582 -23.04264 34910 ft 507 kts 114°
2026-04-26 06:57 59.68766 -22.91440 34910 ft 508 kts 114°
2026-04-26 06:58 59.65933 -22.78620 34912 ft 508 kts 114°
2026-04-26 06:58 59.63090 -22.65830 34918 ft 507 kts 114°
2026-04-26 06:59 59.60262 -22.53184 34912 ft 505 kts 114°
2026-04-26 06:59 59.57411 -22.40512 34924 ft 504 kts 114°
2026-04-26 07:00 59.54557 -22.27897 34911 ft 503 kts 115°
2026-04-26 07:00 59.51692 -22.15314 34923 ft 502 kts 115°
2026-04-26 07:01 59.48840 -22.02861 34925 ft 502 kts 115°
2026-04-26 07:01 59.45954 -21.90332 34918 ft 503 kts 115°
2026-04-26 07:02 59.43050 -21.77799 34935 ft 505 kts 115°
2026-04-26 07:02 59.40122 -21.65236 34933 ft 506 kts 115°
2026-04-26 07:03 59.37182 -21.52692 34928 ft 506 kts 115°
2026-04-26 07:03 59.34224 -21.40147 34929 ft 506 kts 116°
2026-04-26 07:04 59.31275 -21.27712 34936 ft 506 kts 116°
2026-04-26 07:04 59.28293 -21.15208 34930 ft 507 kts 116°
2026-04-26 07:05 59.25297 -21.02721 34945 ft 507 kts 116°
2026-04-26 07:05 59.22284 -20.90231 34944 ft 508 kts 116°
2026-04-26 07:06 59.19263 -20.77782 34940 ft 507 kts 116°
2026-04-26 07:06 59.16244 -20.65413 34945 ft 507 kts 117°
2026-04-26 07:07 59.13203 -20.53022 34947 ft 507 kts 117°
2026-04-26 07:07 59.10152 -20.40656 34944 ft 507 kts 117°
2026-04-26 07:08 59.07083 -20.28292 34955 ft 507 kts 117°
2026-04-26 07:08 59.04019 -20.16013 34960 ft 508 kts 117°
2026-04-26 07:09 59.00922 -20.03663 34960 ft 509 kts 117°
2026-04-26 07:09 58.97834 -19.91288 34965 ft 509 kts 117°
2026-04-26 07:11 58.90234 -19.60341 34973 ft 510 kts 117°
2026-04-26 07:11 58.87154 -19.47961 34971 ft 511 kts 117°
2026-04-26 07:12 58.84055 -19.35583 34970 ft 511 kts 117°
2026-04-26 07:12 58.80945 -19.23232 34978 ft 511 kts 118°
2026-04-26 07:13 58.77844 -19.10986 34973 ft 511 kts 118°
2026-04-26 07:13 58.74708 -18.98666 34967 ft 510 kts 118°
2026-04-26 07:14 58.71567 -18.86396 34982 ft 510 kts 118°
2026-04-26 07:14 58.68416 -18.74155 34987 ft 511 kts 118°
2026-04-26 07:15 58.65249 -18.61919 34984 ft 512 kts 118°
2026-04-26 07:15 58.62071 -18.49704 34987 ft 512 kts 118°
2026-04-26 07:16 58.58875 -18.37493 34999 ft 512 kts 119°
2026-04-26 07:16 58.55692 -18.25392 34974 ft 511 kts 119°
2026-04-26 07:17 58.52465 -18.13189 34988 ft 511 kts 119°
2026-04-26 07:17 58.49263 -18.01149 34996 ft 511 kts 119°
2026-04-26 07:18 58.46025 -17.89042 35003 ft 511 kts 119°
2026-04-26 07:18 58.42777 -17.76956 34999 ft 511 kts 120°
2026-04-26 07:19 58.39517 -17.64894 34997 ft 511 kts 120°
2026-04-26 07:19 58.36249 -17.52862 34998 ft 511 kts 120°
2026-04-26 07:20 58.32993 -17.40941 35008 ft 511 kts 120°
2026-04-26 07:20 58.29704 -17.28961 35011 ft 511 kts 120°
2026-04-26 07:21 58.26401 -17.16995 35009 ft 511 kts 120°
2026-04-26 07:21 58.23088 -17.05054 35017 ft 511 kts 120°
2026-04-26 07:22 58.19756 -16.93108 35017 ft 511 kts 120°
2026-04-26 07:22 58.16442 -16.81285 35018 ft 511 kts 121°
2026-04-26 07:23 58.13094 -16.69405 35021 ft 511 kts 121°
2026-04-26 07:23 58.09730 -16.57530 35024 ft 511 kts 121°
2026-04-26 07:24 58.06360 -16.45694 35024 ft 511 kts 121°
2026-04-26 07:24 58.02977 -16.33872 35028 ft 511 kts 121°
2026-04-26 07:25 57.99604 -16.22147 35025 ft 511 kts 121°
2026-04-26 07:25 57.96204 -16.10385 35026 ft 511 kts 122°
2026-04-26 07:26 57.92792 -15.98645 35044 ft 511 kts 122°
2026-04-26 07:26 57.89369 -15.86928 35039 ft 511 kts 122°
2026-04-26 07:27 57.85939 -15.75242 35041 ft 511 kts 122°
2026-04-26 07:27 57.82496 -15.63574 35049 ft 510 kts 122°
2026-04-26 07:28 57.79049 -15.51946 35050 ft 510 kts 122°
2026-04-26 07:28 57.75611 -15.40409 35060 ft 510 kts 122°
2026-04-26 07:29 57.72134 -15.28799 35052 ft 510 kts 123°
2026-04-26 07:29 57.68659 -15.17252 35055 ft 508 kts 123°
2026-04-26 07:30 57.65201 -15.05818 35063 ft 507 kts 123°
2026-04-26 07:30 57.61721 -14.94370 35067 ft 506 kts 123°
2026-04-26 07:31 57.58237 -14.82963 35058 ft 505 kts 123°
2026-04-26 07:31 57.54744 -14.71580 35071 ft 506 kts 123°
2026-04-26 07:32 57.51252 -14.60259 35080 ft 507 kts 123°
2026-04-26 07:32 57.47730 -14.48895 35084 ft 507 kts 124°
2026-04-26 07:33 57.44196 -14.37544 35082 ft 507 kts 124°
2026-04-26 07:33 57.40656 -14.26230 35087 ft 506 kts 124°
2026-04-26 07:34 57.37108 -14.14942 35086 ft 506 kts 124°
2026-04-26 07:34 57.33555 -14.03695 35108 ft 506 kts 124°
2026-04-26 07:35 57.30011 -13.92528 35101 ft 506 kts 124°
2026-04-26 07:35 57.26435 -13.81315 35101 ft 507 kts 125°
2026-04-26 07:36 57.23449 -13.71988 35111 ft 506 kts 125°
2026-04-26 07:36 57.19860 -13.60829 35110 ft 505 kts 125°
2026-04-26 07:37 57.16267 -13.49711 35106 ft 504 kts 126°
2026-04-26 07:37 57.12667 -13.38622 35115 ft 504 kts 126°
2026-04-26 07:38 57.09060 -13.27563 35129 ft 504 kts 126°
2026-04-26 07:38 57.05439 -13.16505 35126 ft 505 kts 126°
2026-04-26 07:39 57.01705 -13.05617 35114 ft 500 kts 133°
2026-04-26 07:39 56.96805 -12.96905 35102 ft 485 kts 149°
2026-04-26 07:40 56.91108 -12.90813 35149 ft 475 kts 158°
2026-04-26 07:40 56.85306 -12.85006 35138 ft 476 kts 155°
2026-04-26 07:40 56.82571 -12.81519 35130 ft 485 kts 144°
2026-04-26 07:41 56.80188 -12.77090 35144 ft 493 kts 135°
2026-04-26 07:41 56.78179 -12.71939 35140 ft 501 kts 124°
2026-04-26 07:41 56.76582 -12.66256 35166 ft 504 kts 121°
2026-04-26 07:42 56.73543 -12.54711 35133 ft 505 kts 121°
2026-04-26 07:42 56.70478 -12.43195 35153 ft 505 kts 121°
2026-04-26 07:43 56.67367 -12.31812 35157 ft 506 kts 122°
2026-04-26 07:43 56.64194 -12.20373 35162 ft 506 kts 122°
2026-04-26 07:44 56.61009 -12.08950 35164 ft 506 kts 122°
2026-04-26 07:44 56.57825 -11.97575 35173 ft 506 kts 122°
2026-04-26 07:45 56.54650 -11.86281 35166 ft 505 kts 122°
2026-04-26 07:45 56.51452 -11.74959 35172 ft 504 kts 122°
2026-04-26 07:46 56.48243 -11.63657 35171 ft 504 kts 122°
2026-04-26 07:46 56.45030 -11.52392 35173 ft 503 kts 122°
2026-04-26 07:47 56.41811 -11.41163 35181 ft 502 kts 122°
2026-04-26 07:47 56.38589 -11.29980 35188 ft 502 kts 122°
2026-04-26 07:48 56.35350 -11.18791 35184 ft 502 kts 122°
2026-04-26 07:48 56.32128 -11.07713 35179 ft 502 kts 122°
2026-04-26 07:49 56.28878 -10.96592 35188 ft 502 kts 122°
2026-04-26 07:49 56.25618 -10.85489 35185 ft 501 kts 122°
2026-04-26 07:50 56.20715 -10.68888 35199 ft 501 kts 122°
2026-04-26 07:50 56.17428 -10.57822 35204 ft 501 kts 122°
2026-04-26 07:51 56.14137 -10.46799 35205 ft 501 kts 122°
2026-04-26 07:51 56.10839 -10.35800 35208 ft 501 kts 122°
2026-04-26 07:52 56.07528 -10.24811 35204 ft 500 kts 122°
2026-04-26 07:52 56.04233 -10.13921 35214 ft 500 kts 122°
2026-04-26 07:53 56.00910 -10.02985 35211 ft 500 kts 123°
2026-04-26 07:53 55.97506 -9.92170 35216 ft 499 kts 124°
2026-04-26 07:54 55.93938 -9.81550 35218 ft 498 kts 125°
2026-04-26 07:54 55.90355 -9.70972 35210 ft 498 kts 125°
2026-04-26 07:55 55.86815 -9.60472 35205 ft 498 kts 125°
2026-04-26 07:55 55.83254 -9.49896 35219 ft 498 kts 125°
2026-04-26 07:56 55.79687 -9.39340 35226 ft 498 kts 125°
2026-04-26 07:56 55.76106 -9.28793 35217 ft 498 kts 125°
2026-04-26 07:57 55.72515 -9.18266 35233 ft 498 kts 125°
2026-04-26 07:57 55.68918 -9.07767 35233 ft 498 kts 126°
2026-04-26 07:58 55.65333 -8.97348 35229 ft 498 kts 126°
2026-04-26 07:58 55.61718 -8.86889 35235 ft 498 kts 126°
2026-04-26 07:59 55.58092 -8.76442 35234 ft 498 kts 126°
2026-04-26 07:59 55.54455 -8.66008 35236 ft 498 kts 126°
2026-04-26 08:00 55.50837 -8.55673 35239 ft 498 kts 126°
2026-04-26 08:00 55.47189 -8.45295 35227 ft 497 kts 126°
2026-04-26 08:01 55.43536 -8.34949 35237 ft 497 kts 126°
2026-04-26 08:01 55.39876 -8.24625 35236 ft 497 kts 126°
2026-04-26 08:02 55.36202 -8.14306 35243 ft 497 kts 126°
2026-04-26 08:02 55.32526 -8.04026 35242 ft 497 kts 126°
2026-04-26 08:03 55.28841 -7.93762 35241 ft 497 kts 126°
2026-04-26 08:03 55.25168 -7.83575 35229 ft 497 kts 127°
2026-04-26 08:04 55.21469 -7.73358 35241 ft 496 kts 127°
2026-04-26 08:04 55.17755 -7.63145 35237 ft 496 kts 127°
2026-04-26 08:05 55.14034 -7.52951 35238 ft 496 kts 127°
2026-04-26 08:05 55.10306 -7.42784 35261 ft 497 kts 127°
2026-04-26 08:06 55.06571 -7.32638 35269 ft 497 kts 127°
2026-04-26 08:06 55.02845 -7.22559 35254 ft 497 kts 127°
2026-04-26 08:07 54.99092 -7.12444 35278 ft 497 kts 127°
2026-04-26 08:07 54.95329 -7.02347 35267 ft 497 kts 127°
2026-04-26 08:08 54.91558 -6.92271 35262 ft 497 kts 127°
2026-04-26 08:08 54.87775 -6.82204 35260 ft 497 kts 127°
2026-04-26 08:09 54.83982 -6.72150 35255 ft 498 kts 127°
2026-04-26 08:09 54.80178 -6.62108 35243 ft 497 kts 127°
2026-04-26 08:10 54.76394 -6.52158 35256 ft 497 kts 127°
2026-04-26 08:10 54.72567 -6.42138 35261 ft 498 kts 127°
2026-04-26 08:11 54.68730 -6.32131 35266 ft 499 kts 127°
2026-04-26 08:11 54.64916 -6.22224 35270 ft 499 kts 127°
2026-04-26 08:12 54.61058 -6.12244 35266 ft 499 kts 128°
2026-04-26 08:12 54.57195 -6.02289 35257 ft 499 kts 128°
2026-04-26 08:13 54.53331 -5.92370 35268 ft 499 kts 128°
2026-04-26 08:13 54.49455 -5.82461 35265 ft 499 kts 128°
2026-04-26 08:14 54.45574 -5.72580 35267 ft 499 kts 128°
2026-04-26 08:14 54.41682 -5.62709 35264 ft 499 kts 128°
2026-04-26 08:15 54.37803 -5.52910 35264 ft 499 kts 128°
2026-04-26 08:15 54.33895 -5.43078 35255 ft 498 kts 128°
2026-04-26 08:16 54.29971 -5.33244 35262 ft 498 kts 128°
2026-04-26 08:16 54.26073 -5.23513 35262 ft 498 kts 128°
2026-04-26 08:17 54.22147 -5.13750 35262 ft 498 kts 128°
2026-04-26 08:17 54.18208 -5.03994 35262 ft 498 kts 128°
2026-04-26 08:18 54.14267 -4.94268 35243 ft 499 kts 128°
2026-04-26 08:18 54.10316 -4.84558 35261 ft 498 kts 128°
2026-04-26 08:19 54.06350 -4.74847 35260 ft 499 kts 128°
2026-04-26 08:19 54.02385 -4.65178 35277 ft 499 kts 128°
2026-04-26 08:20 53.98403 -4.55501 35273 ft 499 kts 128°
2026-04-26 08:20 53.94443 -4.45913 35257 ft 499 kts 128°
2026-04-26 08:21 53.90446 -4.36270 35259 ft 499 kts 128°
2026-04-26 08:21 53.86496 -4.26572 35261 ft 500 kts 128°
2026-04-26 08:22 53.82582 -4.16929 35268 ft 500 kts 128°
2026-04-26 08:22 53.78605 -4.07273 35272 ft 500 kts 128°
2026-04-26 08:23 53.74612 -3.97635 35268 ft 501 kts 128°
2026-04-26 08:23 53.70609 -3.87992 35274 ft 501 kts 128°
2026-04-26 08:24 53.66598 -3.78356 35255 ft 501 kts 128°
2026-04-26 08:24 53.62584 -3.68750 35266 ft 501 kts 128°
2026-04-26 08:25 53.59231 -3.60756 35273 ft 502 kts 128°
2026-04-26 08:25 53.54542 -3.49598 35285 ft 502 kts 128°
2026-04-26 08:26 53.50500 -3.40013 35283 ft 502 kts 128°
2026-04-26 08:26 53.47133 -3.32055 35282 ft 502 kts 128°
2026-04-26 08:27 53.43075 -3.22497 35305 ft 502 kts 128°
2026-04-26 08:27 53.39016 -3.12971 35311 ft 502 kts 128°
2026-04-26 08:28 53.34862 -3.03573 35316 ft 502 kts 130°
2026-04-26 08:28 53.30659 -2.94235 35321 ft 502 kts 129°
2026-04-26 08:29 53.26494 -2.84942 35320 ft 503 kts 129°
2026-04-26 08:29 53.22298 -2.75596 35318 ft 503 kts 129°
2026-04-26 08:30 53.18095 -2.66252 35319 ft 503 kts 129°
2026-04-26 08:30 53.13870 -2.57011 35315 ft 502 kts 130°
2026-04-26 08:31 53.09884 -2.47430 35317 ft 504 kts 126°
2026-04-26 08:31 53.05993 -2.37718 35325 ft 504 kts 126°
2026-04-26 08:32 53.01655 -2.28646 35311 ft 496 kts 146°
2026-04-26 08:32 52.95860 -2.22685 35356 ft 490 kts 152°
2026-04-26 08:33 52.90056 -2.16819 35331 ft 493 kts 152°
2026-04-26 08:33 52.84196 -2.10745 35340 ft 495 kts 151°
2026-04-26 08:34 52.81311 -2.07737 34947 ft 501 kts 151°
2026-04-26 08:34 52.78325 -2.04629 34062 ft 509 kts 151°
2026-04-26 08:34 52.75334 -2.01516 33092 ft 508 kts 151°
2026-04-26 08:34 52.72345 -1.98413 32135 ft 507 kts 151°
2026-04-26 08:35 52.69359 -1.95319 31164 ft 507 kts 151°
2026-04-26 08:35 52.66379 -1.92237 30487 ft 502 kts 151°
2026-04-26 08:35 52.63430 -1.89192 29748 ft 496 kts 151°
2026-04-26 08:35 52.60526 -1.86200 29107 ft 490 kts 151°
2026-04-26 08:36 52.57656 -1.83248 28468 ft 484 kts 151°
2026-04-26 08:36 52.54807 -1.80323 27838 ft 479 kts 151°
2026-04-26 08:36 52.51991 -1.77439 27211 ft 474 kts 151°
2026-04-26 08:36 52.49203 -1.74587 26580 ft 470 kts 151°
2026-04-26 08:37 52.46440 -1.71766 25987 ft 465 kts 151°
2026-04-26 08:37 52.43699 -1.68971 25384 ft 462 kts 150°
2026-04-26 08:37 52.41006 -1.66228 24794 ft 458 kts 150°
2026-04-26 08:37 52.38305 -1.63481 24202 ft 455 kts 150°
2026-04-26 08:38 52.35618 -1.60751 23512 ft 453 kts 150°
2026-04-26 08:38 52.32947 -1.58042 22861 ft 449 kts 150°
2026-04-26 08:38 52.30304 -1.55364 22263 ft 444 kts 150°
2026-04-26 08:38 52.27724 -1.52753 21661 ft 440 kts 150°
2026-04-26 08:39 52.25135 -1.50137 21076 ft 435 kts 150°
2026-04-26 08:39 52.22574 -1.47554 20493 ft 431 kts 150°
2026-04-26 08:39 52.20106 -1.44836 20020 ft 426 kts 144°
2026-04-26 08:39 52.17833 -1.41768 19609 ft 419 kts 141°
2026-04-26 08:40 52.15679 -1.38625 19198 ft 413 kts 140°
2026-04-26 08:40 52.13561 -1.35511 18797 ft 408 kts 140°
2026-04-26 08:40 52.11450 -1.32459 18349 ft 405 kts 141°
2026-04-26 08:40 52.09328 -1.29448 17893 ft 402 kts 141°
2026-04-26 08:41 52.07211 -1.26485 17484 ft 399 kts 141°
2026-04-26 08:41 52.05114 -1.23570 17073 ft 396 kts 141°
2026-04-26 08:41 52.03027 -1.20679 16664 ft 394 kts 141°
2026-04-26 08:41 52.00933 -1.17784 16285 ft 396 kts 141°
2026-04-26 08:42 51.98856 -1.14913 15883 ft 397 kts 141°
2026-04-26 08:42 51.96759 -1.12019 15497 ft 394 kts 141°
2026-04-26 08:42 51.94669 -1.09137 15012 ft 393 kts 141°
2026-04-26 08:42 51.92594 -1.06278 14513 ft 390 kts 141°
2026-04-26 08:43 51.90537 -1.03445 13988 ft 386 kts 141°
2026-04-26 08:43 51.88502 -1.00648 13447 ft 382 kts 141°
2026-04-26 08:43 51.86489 -0.97882 12914 ft 376 kts 140°
2026-04-26 08:43 51.84743 -0.94822 12436 ft 368 kts 122°
2026-04-26 08:44 51.83661 -0.91237 11992 ft 342 kts 115°
2026-04-26 08:44 51.82692 -0.87861 11539 ft 319 kts 117°
2026-04-26 08:44 51.81759 -0.84733 11131 ft 299 kts 117°
2026-04-26 08:44 51.80869 -0.81798 10768 ft 286 kts 117°
2026-04-26 08:45 51.79990 -0.78918 10429 ft 286 kts 117°
2026-04-26 08:45 51.79108 -0.76041 10031 ft 281 kts 117°
2026-04-26 08:45 51.78257 -0.73265 9657 ft 279 kts 117°
2026-04-26 08:45 51.77395 -0.70463 9289 ft 279 kts 117°
2026-04-26 08:46 51.76531 -0.67652 8923 ft 280 kts 117°
2026-04-26 08:46 51.75665 -0.64842 8559 ft 280 kts 117°
2026-04-26 08:46 51.74799 -0.62036 8194 ft 276 kts 117°
2026-04-26 08:46 51.73965 -0.59338 7803 ft 260 kts 117°
2026-04-26 08:47 51.73139 -0.56826 7446 ft 246 kts 127°
2026-04-26 08:47 51.71831 -0.55182 7366 ft 241 kts 162°
2026-04-26 08:47 51.70163 -0.54781 7357 ft 245 kts 179°
2026-04-26 08:47 51.68458 -0.54710 7325 ft 245 kts 178°
2026-04-26 08:48 51.66766 -0.54624 7311 ft 242 kts 178°
2026-04-26 08:48 51.65082 -0.54536 7317 ft 242 kts 178°
2026-04-26 08:48 51.63405 -0.54583 7310 ft 239 kts 191°
2026-04-26 08:48 51.61888 -0.55603 7324 ft 238 kts 217°
2026-04-26 08:49 51.60798 -0.57535 7321 ft 235 kts 242°
2026-04-26 08:49 51.60243 -0.59935 7309 ft 225 kts 259°
2026-04-26 08:49 51.60048 -0.62406 7325 ft 222 kts 264°
2026-04-26 08:49 51.59922 -0.64878 7320 ft 222 kts 265°
2026-04-26 08:50 51.59790 -0.67390 7089 ft 229 kts 264°
2026-04-26 08:50 51.59643 -0.69929 6841 ft 227 kts 264°
2026-04-26 08:50 51.59492 -0.72446 6486 ft 226 kts 264°
2026-04-26 08:50 51.59341 -0.74925 6051 ft 216 kts 264°
2026-04-26 08:51 51.58055 -0.78715 5465 ft 191 kts 208°
2026-04-26 08:51 51.56842 -0.79520 5214 ft 185 kts 191°
2026-04-26 08:51 51.55595 -0.79669 4952 ft 177 kts 176°
2026-04-26 08:52 51.54375 -0.79593 4669 ft 175 kts 175°
2026-04-26 08:52 51.53168 -0.79511 4422 ft 176 kts 174°
2026-04-26 08:52 51.51943 -0.79430 4178 ft 176 kts 174°
2026-04-26 08:52 51.50713 -0.79346 3919 ft 177 kts 174°
2026-04-26 08:53 51.49506 -0.79143 3647 ft 172 kts 160°
2026-04-26 08:53 51.48503 -0.78210 3405 ft 164 kts 133°
2026-04-26 08:53 51.47951 -0.76672 3166 ft 162 kts 99°
2026-04-26 08:53 51.47848 -0.74851 2994 ft 167 kts 98°
2026-04-26 08:54 51.47731 -0.73013 2819 ft 163 kts 95°
2026-04-26 08:54 51.47688 -0.71228 2680 ft 158 kts 92°
2026-04-26 08:54 51.47679 -0.69496 2613 ft 154 kts 92°
2026-04-26 08:54 51.47680 -0.67746 2457 ft 156 kts 92°
2026-04-26 08:55 51.47685 -0.66061 2273 ft 145 kts 92°
2026-04-26 08:55 51.47691 -0.64477 2064 ft 140 kts 92°
2026-04-26 08:55 51.47696 -0.62912 1910 ft 141 kts 92°
2026-04-26 08:55 51.47703 -0.61336 1702 ft 141 kts 92°
2026-04-26 08:56 51.47708 -0.59797 1517 ft 138 kts 92°
2026-04-26 08:56 51.47714 -0.58259 1311 ft 137 kts 91°
2026-04-26 08:56 51.47720 -0.56743 1123 ft 135 kts 90°
2026-04-26 08:56 51.47725 -0.55214 931 ft 137 kts 89°
2026-04-26 08:57 51.47730 -0.53688 769 ft 136 kts 90°
2026-04-26 08:57 51.47735 -0.52161 567 ft 137 kts 89°
2026-04-26 08:57 51.47737 -0.50669 378 ft 132 kts 90°
2026-04-26 08:57 51.47743 -0.49172 198 ft 136 kts 89°
2026-04-26 08:58 51.47758 -0.47692 96 ft 123 kts 91°
2026-04-26 08:58 51.47756 -0.46524 98 ft 80 kts 89°
2026-04-26 08:58 51.47760 -0.45852 92 ft 47 kts 90°
2026-04-26 08:58 51.47760 -0.45600 92 ft 10 kts 90°
2026-04-26 08:59 51.47728 -0.45483 93 ft 17 kts 147°
2026-04-26 08:59 51.47648 -0.45467 91 ft 8 kts 179°
2026-04-26 08:59 51.47599 -0.45467 91 ft 8 kts 180°
2026-04-26 08:59 51.47532 -0.45482 96 ft 12 kts 212°
2026-04-26 09:00 51.47509 -0.45601 94 ft 10 kts 266°
2026-04-26 09:00 51.47509 -0.45691 94 ft 7 kts 274°
2026-04-26 09:00 51.47516 -0.45779 92 ft 9 kts 277°
2026-04-26 09:00 51.47517 -0.45885 93 ft 10 kts 267°
2026-04-26 09:01 51.47517 -0.46010 91 ft 13 kts 271°
2026-04-26 09:01 51.47517 -0.46176 91 ft 13 kts 270°
2026-04-26 09:01 51.47516 -0.46321 91 ft 15 kts 269°
2026-04-26 09:01 51.47516 -0.46480 91 ft 13 kts 269°
2026-04-26 09:02 51.47515 -0.46601 91 ft 9 kts 269°
2026-04-26 09:02 51.47512 -0.46700 92 ft 13 kts 257°
2026-04-26 09:02 51.47494 -0.46849 95 ft 12 kts 268°
2026-04-26 09:02 51.47493 -0.46966 91 ft 9 kts 269°
2026-04-26 09:03 51.47493 -0.47058 91 ft 8 kts 270°
2026-04-26 09:03 51.47492 -0.47157 91 ft 10 kts 269°
2026-04-26 09:03 51.47492 -0.47283 91 ft 12 kts 270°
2026-04-26 09:03 51.47491 -0.47402 91 ft 10 kts 270°
2026-04-26 09:04 51.47491 -0.47504 91 ft 8 kts 270°
2026-04-26 09:04 51.47491 -0.47588 91 ft 8 kts 269°
2026-04-26 09:04 51.47490 -0.47699 91 ft 12 kts 269°
2026-04-26 09:04 51.47490 -0.47828 92 ft 11 kts 270°
2026-04-26 09:05 51.47490 -0.47939 91 ft 9 kts 270°
2026-04-26 09:05 51.47489 -0.48040 93 ft 10 kts 269°
2026-04-26 09:05 51.47489 -0.48162 93 ft 12 kts 269°
2026-04-26 09:05 51.47488 -0.48269 93 ft 8 kts 270°
2026-04-26 09:06 51.47465 -0.48344 95 ft 9 kts 207°
2026-04-26 09:06 51.47393 -0.48358 94 ft 11 kts 181°
2026-04-26 09:06 51.47318 -0.48359 92 ft 10 kts 179°
2026-04-26 09:06 51.47251 -0.48358 94 ft 9 kts 179°
2026-04-26 09:07 51.47194 -0.48357 94 ft 8 kts 179°
2026-04-26 09:07 51.47138 -0.48356 94 ft 8 kts 179°
2026-04-26 09:07 51.47110 -0.48300 92 ft 7 kts 80°
2026-04-26 09:07 51.47115 -0.48236 94 ft 3 kts 89°
2026-04-26 09:08 51.47115 -0.48226 93 ft 0 kts 89°